GFSGBSN_500_temp_060.txt.gz
Temp
-7 -7 -7 -7 -7 -7 -7 -7 -7 -7 -7 -7 -7 -7 -7 -7 -7 -6 -6 -6 -6 -5 -5 -5 -5 -5 -5 -4 -4 -4 -4 -5 -5 -4 -4 -4 -4 -5 -5 -5 -5 -5 -4 -4 -4 -5 -4
-6 -6 -6 -6 -7 -7 -7 -7 -7 -7 -7 -7 -7 -7 -7 -7 -7 -7 -7 -7 -6 -6 -6 -6 -6 -6 -5 -5 -5 -4 -5 -5 -5 -5 -5 -4 -4 -5 -5 -5 -5 -5 -4 -5 -4 -4 -4
-7 -7 -7 -7 -7 -7 -7 -7 -7 -7 -8 -7 -7 -7 -7 -7 -7 -7 -7 -7 -7 -7 -6 -6 -6 -6 -6 -5 -5 -5 -5 -5 -5 -5 -5 -5 -5 -5 -5 -5 -5 -5 -4 -5 -5 -5 -4
-7 -7 -7 -7 -7 -7 -8 -8 -8 -8 -8 -8 -8 -8 -8 -7 -7 -7 -7 -7 -7 -7 -7 -6 -6 -6 -6 -6 -6 -6 -5 -5 -5 -5 -5 -5 -5 -5 -5 -5 -5 -5 -5 -5 -5 -5 -5
-7 -7 -7 -7 -8 -8 -8 -8 -8 -8 -8 -8 -8 -8 -8 -8 -8 -7 -7 -7 -7 -7 -7 -7 -7 -6 -6 -6 -6 -6 -6 -5 -5 -5 -5 -5 -5 -5 -5 -5 -5 -5 -5 -5 -5 -4 -5
-8 -8 -8 -8 -8 -8 -8 -8 -8 -8 -8 -9 -8 -8 -8 -9 -8 -8 -8 -8 -7 -7 -7 -7 -7 -7 -6 -6 -6 -6 -6 -6 -6 -6 -5 -5 -5 -5 -5 -5 -5 -5 -5 -5 -6 -5 -6
-7 -8 -8 -8 -9 -9 -9 -9 -10 -9 -9 -9 -9 -9 -9 -9 -9 -9 -9 -8 -8 -8 -7 -7 -7 -7 -7 -6 -6 -6 -6 -6 -6 -6 -6 -6 -5 -5 -6 -6 -6 -5 -8 -8 -7 -8 -7
-7 -8 -8 -9 -9 -9 -10 -10 -10 -10 -10 -10 -10 -10 -10 -9 -9 -9 -9 -9 -9 -8 -8 -8 -7 -7 -7 -7 -6 -6 -6 -6 -6 -6 -6 -6 -6 -6 -6 -6 -6 -6 -5 -7 -8 -8 -7
-8 -8 -9 -9 -9 -10 -10 -10 -10 -11 -10 -11 -10 -10 -10 -10 -10 -10 -10 -9 -9 -9 -9 -8 -8 -8 -7 -7 -7 -7 -6 -6 -6 -7 -7 -6 -6 -6 -6 -6 -6 -6 -6 -6 -7 -8 -8
-8 -9 -9 -9 -9 -10 -10 -10 -11 -11 -11 -11 -11 -11 -10 -11 -11 -10 -10 -10 -10 -9 -10 -9 -9 -8 -8 -8 -7 -7 -7 -7 -6 -7 -7 -7 -7 -6 -6 -6 -6 -6 -6 -6 -6 -8 -8
-9 -9 -9 -9 -10 -11 -12 -12 -12 -12 -12 -12 -12 -12 -12 -11 -11 -11 -11 -11 -11 -10 -12 -9 -8 -9 -9 -9 -8 -8 -7 -7 -7 -7 -7 -7 -7 -7 -6 -7 -7 -6 -7 -7 -6 -6 -7
-9 -9 -10 -10 -11 -12 -13 -13 -13 -13 -13 -13 -13 -13 -13 -13 -12 -12 -12 -12 -11 -12 -13 -11 -10 -10 -10 -10 -9 -8 -9 -8 -8 -8 -7 -7 -8 -7 -7 -7 -7 -7 -7 -6 -6 -6 -6
-10 -10 -10 -11 -13 -13 -13 -13 -13 -13 -14 -14 -14 -14 -14 -14 -13 -13 -12 -12 -12 -12 -13 -12 -12 -11 -12 -11 -10 -10 -10 -9 -9 -9 -9 -9 -9 -8 -7 -7 -7 -7 -7 -7 -7 -7 -4
-10 -11 -12 -13 -14 -13 -14 -13 -14 -14 -15 -15 -14 -15 -15 -15 -14 -14 -13 -13 -13 -15 -16 -14 -12 -12 -13 -12 -12 -11 -11 -11 -11 -10 -11 -9 -11 -10 -10 -8 -8 -7 -7 -8 -8 -6 -5
-11 -12 -13 -13 -14 -14 -14 -14 -14 -15 -15 -17 -17 -16 -16 -16 -15 -15 -15 -15 -16 -16 -16 -12 -13 -14 -14 -14 -14 -12 -13 -13 -14 -11 -10 -11 -11 -13 -13 -10 -10 -9 -10 -7 -9 -10 -8
-12 -12 -13 -14 -14 -14 -14 -14 -14 -14 -15 -16 -16 -16 -16 -16 -15 -15 -15 -15 -16 -15 -14 -15 -15 -15 -15 -16 -15 -14 -14 -15 -14 -12 -11 -12 -12 -12 -13 -14 -11 -11 -9 -11 -10 -10 -8
-12 -13 -14 -14 -14 -14 -14 -14 -14 -14 -14 -15 -15 -15 -15 -16 -16 -16 -16 -16 -14 -14 -15 -14 -14 -14 -14 -15 -15 -14 -16 -15 -15 -14 -13 -14 -13 -12 -13 -13 -12 -13 -10 -10 -12 -12 -9
-13 -13 -14 -14 -14 -14 -14 -14 -14 -14 -14 -14 -15 -15 -15 -15 -15 -15 -14 -15 -15 -14 -14 -14 -14 -14 -15 -14 -14 -15 -16 -18 -14 -13 -13 -13 -14 -13 -14 -13 -14 -15 -13 -13 -12 -11 -11
-13 -14 -14 -15 -15 -15 -15 -14 -14 -15 -14 -15 -15 -15 -15 -15 -15 -15 -14 -14 -14 -14 -14 -14 -14 -14 -15 -15 -15 -16 -16 -17 -15 -14 -13 -13 -14 -14 -13 -13 -14 -15 -13 -13 -14 -12 -12
-14 -14 -15 -15 -15 -15 -15 -15 -15 -15 -15 -15 -15 -15 -15 -15 -15 -15 -14 -14 -14 -14 -14 -14 -15 -16 -16 -16 -16 -16 -17 -17 -16 -15 -15 -14 -15 -15 -14 -15 -16 -16 -16 -14 -14 -14 -13
-14 -14 -15 -15 -15 -15 -15 -15 -15 -15 -15 -15 -15 -15 -15 -15 -15 -14 -14 -14 -14 -14 -15 -16 -16 -16 -16 -16 -16 -17 -17 -18 -18 -19 -17 -16 -17 -16 -15 -15 -16 -16 -15 -14 -15 -13 -14
-14 -14 -15 -15 -15 -15 -15 -15 -15 -15 -15 -15 -15 -15 -15 -15 -15 -14 -14 -14 -15 -16 -16 -16 -16 -16 -16 -16 -16 -17 -16 -17 -18 -19 -19 -20 -18 -19 -17 -16 -17 -16 -15 -14 -14 -13 -14
-14 -14 -15 -15 -15 -15 -16 -16 -16 -16 -15 -15 -15 -16 -15 -15 -15 -15 -15 -15 -16 -16 -16 -16 -16 -16 -16 -16 -17 -17 -17 -17 -19 -20 -20 -21 -21 -20 -19 -18 -18 -18 -16 -15 -14 -13 -13
-14 -15 -15 -15 -15 -15 -16 -16 -16 -16 -16 -16 -16 -16 -16 -16 -16 -16 -16 -17 -17 -17 -17 -17 -17 -17 -16 -17 -17 -18 -18 -18 -19 -20 -21 -21 -21 -21 -20 -20 -20 -16 -17 -17 -16 -15 -14
-14 -15 -15 -15 -15 -15 -16 -16 -16 -16 -16 -16 -16 -16 -17 -17 -17 -17 -17 -17 -17 -17 -17 -17 -17 -17 -17 -17 -18 -18 -19 -19 -20 -21 -21 -21 -22 -22 -21 -21 -20 -19 -20 -19 -19 -17 -17
-15 -15 -15 -16 -16 -16 -16 -16 -16 -16 -16 -17 -17 -17 -17 -18 -18 -18 -17 -17 -17 -17 -17 -18 -18 -18 -17 -18 -18 -18 -19 -20 -20 -21 -21 -22 -22 -22 -21 -21 -21 -20 -20 -20 -19 -17 -17
-15 -15 -15 -16 -16 -16 -16 -16 -16 -17 -17 -17 -17 -17 -17 -18 -18 -18 -18 -18 -18 -18 -18 -18 -18 -18 -18 -18 -19 -19 -20 -20 -21 -21 -21 -21 -22 -21 -21 -21 -21 -22 -21 -20 -20 -18 -18
-15 -15 -15 -15 -16 -16 -16 -16 -16 -17 -17 -17 -17 -17 -17 -18 -18 -18 -18 -18 -18 -18 -18 -18 -18 -17 -18 -18 -19 -20 -20 -20 -21 -21 -21 -21 -21 -21 -22 -22 -21 -21 -20 -21 -20 -19 -18
-15 -15 -15 -15 -16 -16 -16 -17 -17 -17 -17 -17 -17 -17 -18 -18 -18 -18 -18 -18 -18 -18 -18 -18 -18 -18 -18 -18 -19 -19 -20 -20 -21 -21 -21 -21 -21 -21 -21 -21 -21 -21 -21 -21 -21 -20 -20

GFSGBSN_500_temp_063.txt.gz
Temp
-6 -6 -6 -6 -6 -6 -7 -7 -7 -7 -7 -7 -7 -7 -7 -7 -7 -7 -7 -6 -6 -6 -5 -5 -5 -4 -4 -4 -5 -5 -4 -4 -4 -4 -4 -4 -4 -5 -5 -5 -5 -5 -4 -4 -5 -5 -4
-6 -6 -6 -6 -6 -7 -7 -7 -7 -7 -7 -7 -7 -7 -7 -7 -7 -7 -7 -7 -7 -7 -6 -6 -6 -5 -5 -4 -5 -4 -4 -4 -5 -4 -4 -4 -4 -5 -5 -5 -5 -5 -7 -6 -6 -6 -5
-7 -7 -7 -7 -7 -7 -7 -7 -7 -7 -7 -7 -8 -8 -7 -7 -7 -7 -7 -7 -7 -7 -7 -7 -6 -6 -6 -5 -5 -5 -5 -5 -5 -5 -5 -4 -4 -4 -5 -5 -5 -5 -5 -5 -5 -6 -6
-7 -7 -7 -7 -8 -8 -8 -8 -8 -7 -7 -7 -7 -8 -8 -8 -8 -7 -7 -7 -7 -7 -7 -7 -7 -7 -6 -6 -6 -5 -5 -5 -5 -5 -5 -5 -5 -5 -4 -4 -5 -5 -5 -5 -5 -5 -6
-7 -7 -7 -7 -7 -8 -8 -9 -9 -8 -9 -9 -9 -9 -8 -8 -8 -8 -8 -8 -8 -7 -7 -7 -7 -7 -7 -6 -6 -6 -6 -5 -5 -5 -5 -5 -5 -5 -5 -5 -4 -5 -5 -6 -6 -6 -6
-7 -7 -7 -7 -8 -8 -9 -9 -9 -9 -9 -9 -9 -9 -9 -9 -9 -9 -9 -8 -8 -8 -7 -7 -7 -7 -7 -6 -6 -6 -6 -6 -6 -6 -5 -5 -5 -5 -5 -5 -5 -5 -6 -6 -6 -6 -6
-7 -7 -7 -8 -8 -9 -9 -9 -9 -9 -10 -10 -10 -9 -10 -10 -10 -9 -9 -9 -8 -8 -8 -8 -7 -7 -7 -7 -7 -7 -7 -6 -6 -6 -6 -6 -5 -5 -6 -6 -6 -5 -5 -6 -7 -8 -7
-7 -7 -8 -8 -9 -9 -9 -9 -9 -10 -10 -10 -10 -10 -10 -10 -10 -10 -10 -10 -9 -9 -8 -8 -8 -8 -7 -7 -7 -7 -7 -7 -6 -6 -6 -6 -5 -6 -6 -6 -6 -6 -5 -5 -6 -9 -8
-7 -8 -8 -8 -9 -9 -10 -11 -12 -12 -12 -11 -11 -11 -11 -11 -11 -11 -11 -11 -10 -9 -9 -9 -8 -8 -8 -8 -7 -7 -7 -7 -7 -7 -6 -6 -7 -7 -6 -6 -6 -6 -6 -6 -6 -8 -7
-8 -8 -8 -8 -9 -10 -11 -12 -13 -13 -13 -13 -13 -12 -12 -12 -12 -11 -11 -11 -11 -11 -10 -9 -9 -8 -9 -8 -8 -7 -8 -7 -7 -7 -7 -6 -7 -7 -6 -6 -7 -6 -6 -6 -6 -7 -6
-8 -8 -8 -9 -9 -10 -12 -13 -13 -13 -13 -13 -13 -13 -13 -13 -13 -12 -12 -12 -12 -11 -12 -10 -10 -9 -9 -9 -8 -8 -8 -8 -8 -7 -7 -7 -7 -7 -7 -6 -7 -7 -7 -7 -7 -7 -6
-8 -8 -9 -10 -10 -12 -13 -13 -13 -13 -14 -14 -14 -14 -14 -14 -14 -13 -13 -13 -12 -12 -13 -12 -11 -11 -11 -10 -9 -8 -9 -9 -8 -8 -7 -7 -7 -7 -7 -7 -7 -7 -7 -7 -6 -6 -5
-9 -9 -9 -10 -11 -13 -13 -13 -13 -14 -14 -15 -15 -15 -15 -15 -15 -14 -14 -13 -13 -15 -15 -14 -12 -12 -11 -12 -10 -10 -10 -10 -9 -9 -9 -9 -9 -8 -7 -7 -7 -7 -7 -7 -6 -6 -5
-9 -9 -10 -11 -12 -13 -13 -13 -13 -14 -14 -15 -17 -17 -17 -16 -16 -15 -15 -14 -15 -16 -16 -14 -13 -13 -13 -13 -12 -12 -11 -11 -11 -11 -10 -9 -9 -9 -10 -9 -7 -7 -7 -7 -7 -5 -6
-10 -10 -11 -11 -13 -13 -13 -13 -13 -14 -14 -15 -16 -16 -16 -16 -16 -17 -16 -16 -16 -15 -16 -15 -15 -15 -15 -14 -14 -13 -13 -13 -13 -11 -10 -10 -9 -9 -9 -11 -9 -9 -8 -7 -7 -7 -8
-10 -11 -12 -12 -13 -14 -13 -14 -14 -14 -14 -14 -15 -16 -16 -16 -16 -16 -17 -16 -16 -16 -16 -16 -15 -15 -16 -17 -16 -15 -14 -14 -14 -12 -11 -10 -11 -11 -10 -9 -8 -9 -9 -10 -8 -7 -8
-11 -12 -12 -13 -14 -14 -14 -14 -14 -14 -14 -14 -14 -15 -15 -16 -16 -17 -16 -16 -15 -15 -15 -15 -15 -15 -15 -15 -15 -15 -17 -14 -13 -12 -11 -11 -11 -12 -13 -12 -11 -12 -10 -11 -10 -9 -9
-11 -12 -13 -13 -14 -14 -14 -14 -14 -15 -15 -15 -15 -14 -15 -15 -15 -15 -15 -16 -15 -15 -14 -14 -15 -15 -15 -16 -15 -14 -15 -14 -13 -13 -12 -12 -12 -12 -12 -13 -13 -11 -10 -12 -12 -9 -9
-12 -13 -13 -14 -15 -15 -15 -15 -15 -15 -15 -15 -15 -15 -15 -15 -15 -15 -15 -15 -15 -14 -14 -15 -14 -14 -14 -15 -15 -16 -16 -15 -13 -13 -13 -13 -13 -13 -13 -13 -14 -13 -13 -13 -13 -11 -10
-12 -13 -13 -14 -15 -15 -15 -15 -15 -15 -15 -15 -15 -15 -15 -15 -15 -14 -14 -14 -14 -14 -14 -14 -14 -14 -14 -15 -15 -15 -15 -16 -15 -14 -14 -14 -14 -14 -13 -14 -14 -15 -14 -14 -13 -12 -10
-13 -13 -14 -15 -15 -15 -15 -15 -15 -16 -15 -15 -15 -15 -15 -15 -15 -15 -14 -14 -14 -14 -15 -15 -15 -15 -15 -15 -15 -15 -15 -15 -15 -15 -15 -15 -15 -14 -14 -14 -16 -14 -15 -15 -14 -13 -11
-13 -13 -14 -15 -15 -15 -15 -16 -16 -16 -16 -16 -16 -15 -15 -15 -15 -15 -15 -15 -15 -16 -16 -16 -16 -16 -16 -15 -15 -15 -15 -15 -15 -15 -15 -16 -16 -16 -15 -15 -16 -16 -15 -15 -15 -13 -12
-14 -14 -14 -15 -15 -15 -16 -16 -16 -16 -16 -16 -16 -16 -16 -16 -16 -16 -16 -16 -17 -17 -17 -17 -16 -16 -16 -16 -16 -15 -15 -16 -16 -16 -17 -16 -17 -17 -17 -18 -18 -16 -15 -15 -14 -14 -13
-14 -14 -14 -15 -15 -15 -16 -16 -16 -16 -16 -16 -16 -16 -16 -16 -17 -17 -17 -17 -17 -17 -16 -16 -16 -16 -16 -16 -16 -15 -16 -17 -17 -17 -17 -18 -18 -19 -19 -20 -21 -15 -17 -17 -16 -14 -13
-14 -15 -14 -14 -15 -15 -15 -16 -16 -16 -16 -17 -17 -17 -17 -17 -17 -18 -17 -17 -17 -17 -17 -17 -17 -17 -17 -16 -16 -17 -17 -17 -17 -18 -18 -19 -20 -20 -20 -21 -20 -20 -19 -18 -17 -16 -15
-14 -15 -14 -15 -15 -15 -15 -16 -16 -16 -16 -17 -17 -17 -17 -17 -18 -18 -18 -17 -17 -17 -17 -17 -17 -17 -17 -17 -17 -17 -18 -18 -18 -19 -20 -21 -21 -21 -21 -21 -21 -20 -20 -20 -19 -17 -16
-14 -15 -14 -15 -15 -15 -15 -16 -16 -16 -17 -17 -17 -17 -17 -17 -17 -18 -17 -17 -17 -18 -17 -18 -18 -17 -17 -17 -17 -18 -18 -18 -18 -19 -20 -21 -21 -21 -21 -21 -21 -21 -21 -20 -20 -18 -18
-14 -14 -14 -15 -15 -15 -15 -16 -16 -17 -17 -17 -17 -17 -17 -17 -17 -18 -18 -18 -18 -18 -18 -17 -17 -17 -18 -17 -18 -18 -19 -19 -19 -19 -20 -21 -21 -21 -21 -21 -21 -20 -20 -20 -20 -20 -19
-14 -14 -14 -15 -15 -15 -15 -15 -16 -17 -17 -17 -17 -18 -17 -17 -17 -18 -18 -18 -18 -18 -18 -18 -18 -18 -18 -18 -18 -18 -19 -19 -20 -21 -20 -21 -21 -21 -21 -21 -21 -21 -21 -20 -20 -20 -20

GFSGBSN_500_temp_069.txt.gz
Temp
-6 -6 -6 -6 -6 -6 -6 -6 -6 -6 -6 -6 -6 -6 -6 -6 -6 -6 -6 -6 -6 -6 -6 -5 -5 -5 -5 -5 -5 -5 -5 -5 -5 -5 -5 -5 -6 -6 -6 -6 -6 -6 -5 -4 -5 -3 -2
-6 -6 -6 -6 -6 -6 -6 -6 -6 -6 -6 -6 -6 -7 -7 -7 -7 -7 -6 -6 -7 -7 -6 -6 -6 -6 -6 -5 -5 -5 -5 -5 -5 -5 -5 -5 -5 -6 -6 -6 -6 -6 -5 -4 -5 -4 -3
-6 -7 -7 -7 -6 -6 -6 -6 -6 -6 -6 -7 -7 -7 -7 -7 -7 -7 -8 -7 -7 -7 -7 -7 -7 -7 -6 -6 -6 -5 -6 -6 -6 -6 -6 -5 -5 -5 -5 -6 -5 -6 -6 -5 -6 -4 -4
-7 -7 -7 -7 -7 -6 -6 -6 -6 -7 -7 -7 -8 -8 -8 -8 -8 -8 -8 -8 -8 -7 -7 -8 -8 -8 -7 -7 -7 -6 -6 -6 -6 -6 -6 -5 -5 -5 -5 -5 -6 -6 -6 -6 -6 -5 -5
-7 -7 -7 -7 -7 -7 -6 -6 -6 -7 -7 -7 -8 -8 -8 -8 -8 -8 -8 -8 -9 -8 -8 -8 -8 -8 -8 -8 -8 -7 -7 -6 -7 -6 -6 -6 -6 -6 -5 -5 -6 -6 -6 -6 -6 -5 -5
-8 -8 -7 -7 -7 -7 -7 -7 -7 -7 -7 -8 -9 -10 -9 -9 -9 -9 -9 -9 -9 -9 -9 -8 -8 -8 -8 -8 -8 -8 -7 -7 -7 -6 -6 -6 -6 -6 -6 -6 -6 -6 -7 -7 -6 -6 -5
-8 -7 -7 -7 -7 -7 -7 -7 -7 -8 -8 -9 -11 -12 -12 -12 -11 -11 -11 -11 -10 -10 -9 -9 -9 -8 -8 -8 -8 -8 -8 -8 -7 -7 -7 -7 -6 -7 -7 -7 -6 -7 -7 -7 -7 -6 -5
-8 -8 -8 -8 -7 -7 -7 -8 -8 -8 -10 -12 -12 -12 -13 -13 -13 -13 -12 -12 -11 -10 -10 -9 -9 -9 -9 -9 -8 -8 -8 -8 -8 -7 -7 -7 -7 -7 -7 -7 -6 -7 -7 -8 -7 -7 -6
-9 -8 -8 -8 -8 -8 -8 -9 -9 -10 -12 -12 -12 -13 -13 -13 -13 -13 -13 -12 -11 -11 -11 -10 -10 -10 -9 -9 -9 -9 -8 -8 -8 -8 -7 -7 -8 -7 -7 -7 -7 -7 -7 -8 -8 -7 -6
-9 -9 -9 -9 -9 -9 -9 -9 -10 -11 -12 -13 -13 -13 -14 -14 -14 -14 -13 -13 -13 -13 -12 -11 -11 -10 -9 -9 -9 -8 -8 -8 -8 -8 -8 -8 -8 -7 -7 -7 -7 -7 -8 -8 -8 -8 -7
-9 -9 -9 -9 -9 -9 -10 -10 -11 -12 -13 -13 -13 -13 -14 -16 -16 -15 -15 -15 -14 -14 -13 -13 -12 -11 -11 -10 -10 -9 -9 -8 -8 -8 -8 -8 -8 -8 -8 -8 -8 -8 -8 -9 -9 -8 -7
-10 -10 -10 -10 -10 -10 -10 -11 -12 -13 -13 -13 -14 -14 -15 -17 -17 -15 -15 -15 -15 -15 -14 -13 -12 -12 -11 -11 -10 -9 -9 -9 -9 -8 -8 -9 -8 -8 -8 -8 -8 -9 -8 -8 -9 -8 -7
-10 -10 -10 -10 -10 -11 -11 -12 -13 -14 -14 -14 -14 -15 -15 -16 -17 -16 -15 -15 -15 -16 -15 -15 -14 -13 -12 -12 -12 -11 -10 -9 -9 -9 -8 -9 -8 -8 -8 -8 -8 -8 -8 -8 -8 -8 -8
-11 -11 -10 -11 -11 -11 -12 -13 -14 -14 -14 -14 -14 -15 -15 -16 -17 -16 -16 -17 -16 -16 -15 -15 -14 -14 -13 -13 -12 -11 -11 -10 -9 -9 -8 -9 -9 -8 -8 -8 -8 -8 -8 -8 -8 -8 -9
-11 -11 -11 -11 -12 -12 -13 -14 -15 -15 -15 -15 -14 -15 -15 -16 -16 -17 -18 -16 -16 -16 -16 -15 -15 -14 -13 -13 -13 -12 -11 -11 -10 -9 -9 -9 -9 -9 -8 -8 -9 -8 -8 -8 -8 -8 -9
-12 -12 -11 -12 -12 -13 -14 -15 -15 -15 -15 -15 -15 -15 -15 -15 -16 -17 -18 -17 -16 -16 -16 -16 -15 -15 -14 -14 -13 -12 -12 -11 -11 -10 -10 -10 -10 -10 -9 -9 -9 -9 -9 -8 -8 -8 -9
-13 -12 -12 -12 -12 -13 -14 -15 -15 -15 -15 -15 -15 -15 -15 -15 -16 -17 -18 -17 -17 -17 -16 -16 -16 -16 -15 -15 -14 -13 -12 -12 -11 -11 -11 -10 -11 -11 -11 -10 -10 -10 -10 -9 -9 -9 -9
-13 -12 -12 -13 -13 -13 -14 -15 -15 -15 -16 -16 -15 -15 -16 -16 -16 -17 -17 -17 -16 -17 -17 -16 -16 -16 -16 -16 -15 -14 -13 -13 -12 -12 -11 -11 -12 -13 -12 -12 -11 -10 -10 -10 -10 -10 -10
-13 -13 -13 -13 -13 -14 -14 -14 -15 -15 -16 -16 -16 -16 -15 -15 -16 -16 -16 -17 -17 -17 -16 -16 -16 -16 -16 -15 -15 -14 -13 -13 -13 -14 -14 -14 -13 -14 -14 -13 -12 -11 -11 -10 -11 -11 -11
-14 -13 -13 -13 -13 -14 -14 -14 -15 -15 -16 -16 -16 -16 -16 -16 -15 -15 -15 -15 -15 -15 -16 -16 -16 -16 -16 -16 -15 -14 -13 -13 -14 -14 -14 -14 -14 -14 -14 -13 -13 -13 -13 -11 -11 -12 -12
-13 -14 -13 -13 -14 -14 -14 -14 -15 -15 -16 -16 -16 -16 -16 -16 -16 -15 -15 -15 -15 -15 -15 -15 -15 -15 -15 -15 -15 -14 -14 -14 -14 -14 -14 -14 -13 -13 -13 -13 -13 -13 -13 -13 -12 -12 -12
-13 -14 -14 -14 -14 -14 -14 -14 -15 -15 -16 -16 -17 -17 -16 -16 -16 -16 -16 -16 -16 -16 -16 -16 -15 -15 -15 -15 -15 -15 -14 -14 -14 -15 -14 -15 -14 -14 -13 -13 -13 -13 -14 -14 -14 -14 -13
-13 -14 -14 -14 -14 -14 -14 -14 -15 -16 -16 -17 -17 -17 -17 -17 -17 -17 -17 -17 -17 -16 -16 -16 -16 -16 -16 -16 -16 -16 -16 -15 -15 -15 -15 -15 -14 -14 -14 -14 -13 -14 -14 -14 -14 -15 -14
-13 -15 -14 -14 -14 -14 -14 -15 -15 -16 -16 -17 -17 -17 -17 -17 -17 -17 -18 -18 -18 -17 -17 -16 -16 -16 -16 -16 -15 -15 -15 -15 -15 -15 -14 -14 -14 -14 -14 -14 -13 -14 -14 -15 -14 -14 -14
-13 -14 -14 -14 -14 -14 -14 -15 -15 -15 -16 -17 -17 -17 -17 -17 -17 -17 -18 -18 -17 -17 -17 -16 -16 -16 -16 -16 -16 -15 -15 -15 -15 -14 -14 -14 -14 -14 -14 -14 -14 -15 -16 -16 -15 -15 -15
-13 -14 -14 -15 -14 -14 -14 -15 -15 -15 -16 -17 -16 -17 -17 -17 -17 -17 -17 -17 -17 -17 -17 -17 -17 -16 -16 -16 -16 -16 -16 -16 -16 -16 -15 -15 -14 -15 -16 -16 -16 -16 -17 -17 -17 -16 -16
-14 -15 -14 -15 -15 -14 -14 -15 -15 -15 -16 -16 -16 -16 -17 -17 -17 -17 -17 -17 -17 -17 -17 -17 -17 -17 -16 -16 -16 -16 -16 -16 -16 -16 -15 -15 -16 -16 -16 -16 -16 -17 -19 -19 -19 -17 -17
-14 -15 -15 -15 -15 -14 -14 -15 -15 -15 -16 -16 -16 -16 -16 -16 -17 -17 -17 -17 -17 -17 -17 -17 -17 -16 -16 -16 -16 -16 -16 -17 -17 -17 -17 -16 -16 -16 -16 -16 -17 -17 -19 -20 -20 -20 -20
-14 -15 -15 -15 -15 -15 -15 -15 -15 -15 -16 -16 -16 -16 -16 -16 -16 -16 -16 -16 -16 -16 -16 -17 -17 -17 -17 -17 -17 -17 -16 -16 -17 -17 -17 -17 -16 -16 -17 -17 -17 -18 -18 -19 -19 -20 -20

GFSGBSN_500_temp_072.txt.gz
Temp
-6 -6 -6 -6 -6 -6 -6 -6 -5 -5 -5 -5 -5 -5 -5 -5 -5 -5 -5 -6 -6 -6 -6 -6 -6 -6 -6 -6 -5 -6 -6 -6 -6 -6 -6 -6 -6 -6 -6 -6 -6 -5 -5 -5 -5 -5 -5
-6 -7 -7 -7 -7 -7 -6 -6 -6 -6 -6 -6 -6 -6 -6 -6 -6 -6 -6 -6 -6 -6 -6 -6 -6 -6 -6 -6 -6 -6 -6 -6 -6 -6 -6 -6 -6 -6 -7 -7 -6 -5 -5 -5 -5 -5 -5
-7 -7 -7 -7 -7 -7 -7 -7 -6 -7 -7 -7 -7 -7 -7 -7 -7 -7 -7 -7 -7 -7 -7 -7 -7 -7 -6 -6 -6 -6 -6 -6 -6 -6 -6 -6 -6 -6 -6 -6 -6 -6 -6 -6 -6 -6 -6
-7 -7 -7 -7 -7 -7 -7 -7 -7 -7 -7 -7 -7 -7 -7 -7 -8 -8 -7 -7 -7 -7 -8 -8 -8 -8 -7 -7 -7 -7 -7 -7 -7 -7 -6 -6 -6 -6 -6 -6 -6 -6 -7 -7 -6 -6 -6
-7 -7 -7 -7 -8 -7 -7 -7 -7 -7 -7 -7 -7 -7 -7 -8 -9 -8 -7 -7 -8 -8 -8 -9 -8 -8 -8 -8 -8 -7 -7 -7 -7 -7 -6 -6 -6 -6 -6 -6 -6 -6 -7 -7 -7 -7 -7
-7 -8 -8 -8 -8 -8 -8 -8 -8 -8 -8 -8 -8 -8 -8 -10 -10 -10 -9 -9 -9 -9 -9 -9 -9 -9 -8 -8 -8 -8 -8 -7 -7 -7 -7 -7 -7 -7 -6 -6 -6 -6 -7 -7 -7 -7 -6
-8 -8 -8 -8 -8 -8 -8 -9 -8 -8 -8 -9 -9 -10 -11 -11 -12 -12 -11 -11 -11 -11 -10 -10 -9 -9 -9 -9 -8 -8 -8 -8 -8 -7 -7 -7 -7 -7 -7 -7 -7 -7 -7 -7 -7 -7 -7
-8 -8 -9 -9 -9 -9 -9 -9 -9 -9 -9 -10 -11 -12 -12 -12 -12 -13 -13 -13 -13 -12 -12 -11 -11 -10 -9 -9 -9 -9 -8 -8 -8 -8 -8 -7 -7 -8 -8 -7 -7 -7 -7 -8 -8 -7 -7
-8 -9 -9 -9 -9 -9 -9 -9 -10 -10 -10 -10 -12 -13 -13 -13 -13 -13 -14 -14 -13 -14 -13 -13 -12 -11 -10 -10 -10 -9 -9 -9 -8 -8 -8 -8 -8 -8 -8 -8 -7 -7 -7 -8 -8 -7 -7
-9 -9 -9 -10 -10 -10 -10 -10 -10 -10 -11 -12 -13 -13 -13 -13 -14 -14 -16 -15 -14 -15 -14 -13 -13 -12 -11 -11 -10 -9 -9 -9 -9 -8 -8 -8 -8 -8 -8 -8 -8 -8 -8 -8 -8 -7 -6
-9 -10 -10 -10 -10 -10 -10 -11 -11 -11 -13 -13 -14 -14 -14 -14 -15 -17 -17 -15 -15 -16 -15 -14 -13 -13 -12 -11 -11 -10 -10 -9 -9 -9 -8 -8 -8 -8 -8 -8 -8 -8 -9 -8 -8 -8 -7
-10 -10 -10 -11 -11 -11 -11 -12 -12 -13 -14 -14 -14 -14 -14 -15 -16 -16 -16 -16 -16 -15 -15 -15 -14 -13 -13 -12 -11 -11 -10 -10 -9 -9 -9 -9 -9 -9 -9 -8 -9 -9 -8 -8 -8 -8 -7
-10 -10 -11 -11 -11 -11 -12 -12 -13 -14 -14 -14 -14 -14 -15 -15 -16 -17 -17 -16 -16 -15 -15 -15 -15 -15 -14 -13 -12 -11 -11 -10 -10 -9 -9 -9 -9 -9 -9 -8 -9 -9 -9 -9 -9 -9 -8
-10 -11 -12 -12 -12 -12 -12 -13 -14 -14 -15 -15 -15 -15 -15 -16 -16 -17 -17 -16 -16 -16 -16 -16 -15 -15 -15 -14 -13 -12 -12 -11 -10 -9 -10 -9 -9 -9 -9 -9 -9 -9 -9 -9 -9 -9 -9
-11 -11 -12 -12 -12 -13 -13 -13 -14 -14 -15 -15 -15 -15 -15 -16 -17 -17 -17 -18 -17 -16 -16 -16 -15 -15 -15 -15 -13 -12 -12 -11 -11 -10 -10 -10 -9 -9 -9 -9 -9 -9 -9 -9 -9 -9 -9
-11 -11 -12 -12 -12 -13 -13 -13 -14 -14 -15 -15 -15 -15 -15 -16 -17 -18 -18 -18 -17 -16 -16 -16 -16 -15 -15 -15 -14 -13 -12 -12 -11 -11 -11 -11 -10 -10 -9 -10 -10 -10 -10 -10 -10 -9 -9
-11 -12 -13 -13 -13 -13 -13 -13 -14 -14 -15 -15 -15 -16 -16 -16 -17 -18 -18 -17 -17 -17 -17 -16 -16 -16 -16 -15 -15 -14 -13 -12 -12 -11 -11 -12 -11 -11 -10 -10 -10 -10 -10 -10 -10 -10 -10
-12 -12 -13 -13 -13 -13 -13 -13 -14 -14 -15 -15 -16 -16 -16 -16 -16 -17 -18 -17 -17 -17 -17 -17 -17 -17 -17 -16 -16 -14 -14 -13 -13 -13 -12 -13 -13 -12 -12 -11 -11 -10 -10 -10 -10 -9 -10
-12 -12 -13 -13 -13 -14 -14 -13 -14 -14 -15 -16 -16 -16 -16 -16 -16 -16 -17 -16 -16 -16 -17 -17 -16 -17 -17 -16 -16 -16 -15 -15 -15 -15 -14 -15 -14 -14 -13 -12 -12 -11 -11 -11 -10 -10 -9
-12 -12 -13 -14 -14 -14 -14 -14 -14 -15 -16 -16 -16 -16 -16 -16 -16 -16 -16 -16 -16 -16 -16 -16 -17 -16 -16 -16 -15 -15 -15 -16 -16 -16 -16 -16 -15 -14 -13 -12 -12 -11 -11 -11 -10 -10 -9
-12 -13 -14 -14 -14 -14 -14 -14 -14 -15 -16 -16 -16 -16 -16 -16 -16 -16 -16 -16 -16 -16 -16 -16 -16 -16 -16 -16 -15 -15 -15 -15 -15 -15 -15 -16 -15 -13 -12 -12 -12 -11 -11 -11 -11 -11 -10
-12 -13 -14 -14 -14 -14 -14 -14 -14 -15 -16 -16 -16 -17 -16 -16 -17 -17 -17 -17 -16 -16 -16 -16 -16 -16 -16 -16 -15 -15 -15 -14 -14 -14 -14 -14 -14 -14 -13 -13 -13 -12 -12 -12 -12 -11 -11
-13 -13 -14 -14 -14 -14 -14 -14 -15 -15 -16 -16 -16 -17 -17 -17 -17 -17 -17 -17 -17 -17 -16 -16 -16 -16 -16 -15 -15 -15 -15 -14 -14 -14 -15 -14 -14 -14 -14 -14 -13 -13 -13 -13 -13 -13 -13
-13 -13 -14 -14 -14 -14 -14 -14 -15 -15 -16 -16 -16 -16 -16 -16 -16 -17 -17 -18 -18 -17 -17 -17 -17 -16 -16 -16 -16 -15 -15 -15 -15 -15 -15 -15 -15 -15 -14 -14 -14 -13 -13 -14 -13 -13 -14
-13 -13 -14 -14 -14 -14 -14 -14 -15 -15 -15 -16 -16 -16 -16 -17 -17 -17 -17 -17 -17 -17 -17 -17 -16 -16 -16 -16 -16 -16 -15 -15 -15 -15 -15 -15 -15 -15 -14 -15 -14 -14 -14 -14 -14 -14 -14
-13 -14 -13 -15 -14 -15 -15 -15 -15 -15 -15 -15 -16 -16 -16 -16 -17 -17 -17 -17 -17 -17 -17 -17 -17 -16 -16 -16 -16 -16 -15 -15 -15 -15 -15 -15 -15 -14 -14 -15 -14 -14 -15 -15 -15 -14 -15
-13 -13 -14 -15 -14 -15 -15 -15 -15 -15 -15 -15 -15 -15 -16 -16 -16 -16 -16 -16 -16 -17 -17 -17 -17 -17 -16 -16 -16 -16 -16 -16 -16 -16 -16 -16 -15 -15 -15 -15 -15 -16 -16 -16 -16 -15 -16
-13 -13 -15 -15 -15 -15 -15 -15 -15 -15 -15 -15 -15 -15 -15 -16 -16 -16 -16 -16 -16 -16 -16 -16 -16 -16 -17 -16 -16 -16 -16 -16 -16 -16 -16 -16 -16 -16 -15 -16 -16 -16 -16 -16 -16 -16 -16
-13 -13 -15 -15 -15 -15 -15 -15 -15 -15 -15 -15 -16 -15 -15 -15 -15 -15 -15 -16 -16 -16 -16 -16 -16 -16 -16 -16 -16 -16 -17 -17 -17 -17 -17 -16 -16 -16 -16 -16 -16 -16 -16 -16 -16 -16 -16

GFSGBSN_500_temp_075.txt.gz
Temp
-5 -6 -6 -6 -6 -6 -6 -6 -6 -6 -6 -5 -5 -5 -5 -5 -5 -5 -5 -5 -5 -6 -6 -6 -6 -5 -5 -5 -6 -6 -6 -6 -6 -6 -6 -6 -6 -6 -6 -6 -6 -5 -5 -5 -5 -6 -6
-6 -6 -6 -7 -7 -7 -7 -7 -7 -7 -6 -6 -6 -6 -6 -6 -6 -6 -6 -6 -6 -6 -6 -6 -6 -6 -6 -5 -6 -6 -6 -6 -6 -6 -6 -6 -6 -6 -6 -6 -6 -5 -5 -5 -5 -5 -6
-6 -6 -7 -7 -7 -8 -7 -8 -8 -7 -7 -7 -7 -7 -7 -7 -7 -6 -6 -7 -7 -6 -6 -7 -7 -7 -6 -6 -6 -6 -6 -6 -7 -7 -6 -6 -6 -6 -6 -6 -6 -6 -6 -6 -6 -6 -5
-6 -6 -7 -8 -8 -8 -8 -8 -8 -8 -8 -8 -8 -7 -7 -7 -7 -7 -7 -7 -7 -7 -7 -7 -7 -8 -8 -7 -7 -7 -6 -6 -7 -7 -7 -6 -6 -6 -6 -6 -6 -7 -6 -6 -6 -6 -6
-6 -7 -8 -8 -8 -8 -8 -8 -9 -9 -8 -8 -8 -8 -8 -8 -8 -8 -8 -8 -8 -8 -7 -7 -7 -8 -8 -8 -8 -7 -7 -7 -7 -7 -7 -7 -7 -6 -6 -6 -6 -7 -7 -7 -7 -6 -7
-7 -8 -8 -8 -8 -9 -9 -9 -9 -9 -9 -9 -9 -9 -9 -10 -9 -9 -10 -9 -9 -9 -8 -9 -9 -8 -8 -9 -8 -8 -8 -7 -7 -7 -7 -7 -7 -7 -6 -6 -6 -7 -7 -7 -7 -7 -8
-7 -8 -9 -9 -9 -9 -9 -10 -10 -9 -9 -10 -10 -11 -11 -11 -11 -11 -11 -12 -11 -11 -10 -10 -10 -10 -9 -9 -9 -9 -8 -8 -8 -7 -7 -7 -7 -7 -7 -7 -7 -7 -7 -7 -7 -7 -8
-7 -9 -9 -9 -9 -9 -10 -10 -10 -10 -10 -10 -11 -11 -11 -12 -12 -12 -12 -12 -12 -12 -12 -12 -11 -11 -11 -10 -9 -9 -9 -9 -8 -8 -8 -8 -8 -8 -8 -7 -7 -7 -7 -7 -7 -7 -7
-8 -9 -9 -9 -9 -10 -10 -10 -10 -10 -10 -11 -11 -13 -13 -13 -13 -13 -13 -13 -13 -13 -13 -13 -13 -12 -12 -11 -10 -10 -9 -9 -9 -9 -8 -8 -8 -8 -8 -8 -7 -7 -8 -7 -7 -7 -7
-9 -10 -10 -9 -10 -10 -11 -11 -11 -11 -11 -12 -13 -13 -14 -14 -14 -14 -14 -14 -14 -15 -14 -14 -14 -13 -13 -12 -11 -10 -10 -10 -9 -9 -9 -9 -8 -8 -8 -8 -8 -7 -7 -7 -7 -7 -7
-9 -10 -10 -10 -11 -11 -11 -11 -11 -12 -12 -13 -14 -14 -14 -14 -14 -14 -15 -16 -17 -16 -16 -16 -15 -14 -13 -13 -12 -11 -10 -10 -10 -9 -9 -9 -9 -8 -8 -8 -8 -8 -8 -8 -7 -6 -7
-9 -10 -10 -10 -11 -11 -11 -12 -12 -13 -13 -14 -14 -15 -15 -14 -15 -16 -16 -16 -17 -17 -16 -16 -15 -15 -14 -13 -13 -12 -11 -10 -10 -10 -10 -9 -9 -9 -9 -9 -9 -8 -8 -8 -7 -7 -7
-10 -11 -10 -11 -12 -12 -12 -12 -12 -13 -13 -14 -15 -15 -15 -15 -15 -17 -17 -17 -16 -16 -16 -16 -15 -16 -16 -14 -13 -13 -12 -11 -10 -10 -10 -9 -9 -9 -9 -9 -9 -9 -9 -8 -8 -7 -7
-10 -11 -11 -11 -12 -12 -12 -12 -13 -13 -14 -14 -15 -15 -15 -15 -15 -17 -17 -16 -16 -16 -16 -16 -17 -17 -17 -16 -15 -13 -12 -12 -11 -10 -10 -10 -10 -9 -9 -9 -9 -9 -9 -8 -8 -7 -7
-10 -11 -11 -11 -12 -12 -12 -13 -13 -13 -14 -14 -15 -15 -15 -15 -16 -18 -18 -18 -17 -17 -18 -17 -18 -17 -17 -16 -15 -14 -13 -12 -11 -11 -11 -10 -10 -9 -9 -9 -10 -9 -9 -9 -9 -8 -8
-10 -11 -11 -12 -13 -13 -13 -13 -13 -13 -14 -15 -15 -16 -16 -16 -16 -18 -19 -18 -17 -17 -18 -18 -18 -18 -17 -16 -15 -14 -13 -12 -12 -12 -11 -11 -10 -10 -10 -10 -10 -9 -9 -10 -9 -9 -9
-11 -12 -12 -12 -13 -13 -13 -13 -13 -14 -14 -15 -15 -16 -16 -16 -16 -17 -18 -18 -17 -17 -17 -18 -18 -18 -17 -16 -15 -14 -14 -14 -13 -13 -12 -12 -11 -11 -10 -10 -10 -10 -10 -10 -10 -9 -9
-11 -12 -12 -12 -14 -13 -13 -13 -13 -14 -14 -15 -16 -16 -16 -16 -16 -17 -17 -18 -17 -17 -17 -18 -18 -17 -17 -17 -17 -17 -16 -15 -15 -14 -14 -13 -12 -12 -11 -11 -10 -10 -10 -10 -10 -9 -9
-11 -12 -12 -12 -14 -13 -13 -14 -14 -14 -15 -15 -16 -16 -16 -16 -16 -16 -16 -17 -17 -17 -17 -17 -17 -17 -17 -17 -17 -17 -17 -17 -16 -16 -15 -14 -14 -13 -12 -12 -11 -11 -10 -10 -10 -10 -10
-11 -12 -12 -13 -14 -14 -14 -14 -14 -14 -15 -15 -16 -16 -16 -16 -16 -16 -16 -16 -16 -17 -17 -17 -17 -17 -18 -17 -17 -16 -17 -17 -17 -17 -16 -15 -14 -13 -13 -12 -12 -11 -11 -11 -10 -10 -10
-11 -12 -13 -13 -14 -14 -14 -14 -14 -14 -15 -15 -16 -16 -16 -16 -16 -16 -16 -16 -16 -16 -16 -16 -16 -17 -17 -17 -17 -17 -17 -16 -16 -17 -16 -15 -14 -14 -13 -12 -12 -12 -11 -11 -11 -10 -10
-12 -12 -13 -13 -14 -14 -14 -14 -14 -14 -15 -15 -16 -16 -16 -16 -16 -16 -16 -16 -16 -16 -15 -16 -16 -16 -16 -17 -17 -17 -17 -17 -16 -17 -16 -16 -15 -14 -13 -13 -12 -12 -12 -11 -11 -10 -10
-12 -12 -13 -13 -15 -14 -14 -14 -14 -15 -15 -15 -16 -16 -16 -16 -16 -16 -17 -17 -17 -16 -16 -16 -16 -16 -16 -16 -16 -16 -16 -16 -16 -16 -16 -16 -15 -14 -14 -14 -13 -13 -13 -13 -12 -12 -12
-12 -12 -13 -13 -15 -14 -14 -15 -14 -15 -15 -15 -15 -16 -16 -16 -16 -17 -17 -17 -17 -17 -17 -16 -16 -16 -16 -15 -16 -16 -16 -15 -15 -15 -15 -15 -15 -15 -14 -14 -14 -13 -13 -13 -13 -13 -13
-12 -12 -14 -14 -16 -14 -14 -15 -15 -15 -15 -15 -15 -15 -16 -16 -16 -16 -17 -17 -17 -17 -17 -17 -17 -16 -16 -16 -16 -15 -15 -15 -15 -15 -15 -15 -15 -15 -15 -14 -14 -14 -14 -14 -14 -13 -13
-12 -13 -13 -14 -16 -15 -15 -15 -15 -15 -15 -15 -15 -15 -15 -15 -15 -16 -16 -16 -16 -17 -17 -17 -17 -16 -16 -16 -16 -16 -15 -15 -15 -15 -15 -15 -15 -15 -15 -15 -14 -14 -14 -14 -14 -14 -14
-12 -14 -14 -14 -16 -15 -15 -15 -15 -15 -15 -15 -15 -15 -15 -15 -15 -15 -16 -16 -16 -16 -16 -16 -16 -16 -16 -16 -16 -16 -16 -15 -15 -15 -15 -15 -15 -15 -15 -14 -14 -14 -14 -14 -14 -14 -14
-13 -14 -14 -14 -16 -15 -15 -15 -15 -15 -15 -15 -15 -15 -15 -15 -15 -15 -15 -16 -16 -16 -16 -16 -16 -16 -16 -16 -16 -16 -16 -16 -16 -16 -16 -16 -16 -16 -16 -15 -15 -15 -14 -14 -15 -14 -14
-14 -14 -14 -15 -16 -15 -15 -15 -15 -15 -15 -15 -15 -15 -15 -15 -15 -16 -16 -16 -16 -16 -16 -16 -16 -16 -16 -16 -16 -16 -16 -16 -17 -17 -17 -17 -17 -16 -16 -16 -16 -16 -16 -16 -16 -15 -15

GFSGBSN_500_temp_078.txt.gz
Temp
-5 -5 -5 -6 -7 -7 -7 -7 -7 -7 -7 -7 -6 -6 -6 -6 -5 -5 -5 -5 -5 -5 -5 -5 -6 -6 -5 -5 -5 -5 -5 -6 -6 -6 -6 -6 -6 -6 -6 -6 -5 -5 -5 -5 -5 -6 -5
-6 -6 -6 -6 -7 -7 -7 -7 -8 -8 -7 -7 -7 -6 -6 -6 -6 -6 -6 -6 -6 -5 -5 -5 -5 -6 -6 -5 -6 -5 -6 -6 -6 -6 -6 -6 -6 -6 -6 -6 -6 -5 -5 -5 -5 -5 -5
-5 -6 -6 -7 -8 -8 -8 -8 -8 -8 -8 -8 -8 -7 -7 -7 -7 -6 -6 -7 -6 -6 -6 -6 -6 -6 -6 -6 -6 -6 -6 -6 -6 -6 -6 -6 -6 -6 -6 -6 -6 -6 -6 -6 -6 -5 -5
-6 -6 -7 -7 -8 -8 -8 -8 -8 -8 -8 -9 -8 -8 -8 -7 -7 -7 -7 -7 -7 -7 -7 -6 -6 -6 -6 -6 -7 -7 -6 -6 -6 -6 -6 -6 -6 -6 -6 -6 -6 -6 -6 -6 -6 -6 -6
-6 -6 -7 -8 -8 -8 -8 -8 -9 -9 -9 -9 -8 -8 -8 -8 -8 -8 -7 -8 -8 -8 -8 -7 -7 -7 -6 -6 -7 -7 -7 -6 -6 -6 -6 -6 -7 -6 -6 -7 -7 -7 -7 -7 -7 -7 -6
-6 -6 -7 -8 -9 -9 -9 -9 -9 -9 -9 -9 -9 -9 -9 -9 -9 -9 -9 -9 -9 -9 -8 -8 -8 -7 -7 -7 -7 -7 -7 -7 -7 -7 -6 -6 -7 -7 -7 -6 -7 -7 -8 -7 -7 -7 -7
-6 -7 -8 -9 -9 -9 -9 -10 -10 -10 -10 -10 -9 -9 -9 -10 -10 -11 -11 -11 -11 -10 -10 -9 -9 -8 -8 -8 -8 -8 -8 -8 -8 -7 -7 -7 -7 -7 -7 -7 -7 -7 -7 -8 -7 -7 -7
-6 -7 -8 -9 -9 -9 -9 -10 -10 -10 -10 -10 -10 -10 -10 -10 -11 -12 -12 -12 -12 -12 -11 -11 -10 -9 -9 -9 -9 -8 -8 -8 -8 -8 -8 -7 -7 -7 -7 -7 -7 -7 -7 -8 -8 -7 -7
-7 -7 -8 -10 -9 -10 -10 -10 -11 -11 -11 -11 -11 -11 -12 -13 -13 -14 -14 -13 -13 -13 -13 -13 -12 -11 -11 -10 -10 -10 -10 -9 -9 -9 -8 -8 -8 -8 -7 -7 -7 -8 -8 -8 -8 -8 -7
-7 -8 -9 -10 -10 -10 -10 -11 -11 -11 -11 -11 -12 -12 -13 -14 -14 -14 -14 -14 -14 -13 -13 -13 -13 -12 -12 -12 -11 -11 -10 -10 -9 -9 -9 -9 -8 -8 -8 -8 -8 -8 -8 -7 -8 -8 -8
-7 -8 -10 -10 -10 -10 -11 -11 -11 -12 -12 -12 -12 -13 -14 -14 -14 -14 -14 -14 -15 -15 -17 -16 -15 -14 -13 -14 -13 -11 -11 -11 -10 -10 -9 -9 -9 -8 -8 -8 -8 -8 -7 -7 -8 -8 -7
-8 -9 -10 -10 -10 -11 -11 -12 -12 -12 -12 -12 -13 -13 -14 -15 -15 -15 -15 -16 -16 -16 -17 -17 -16 -16 -15 -15 -14 -13 -12 -11 -11 -10 -10 -9 -9 -9 -9 -9 -8 -8 -8 -8 -7 -8 -8
-8 -9 -10 -11 -11 -11 -12 -12 -12 -13 -13 -13 -13 -14 -14 -15 -15 -15 -16 -17 -17 -17 -17 -17 -17 -16 -17 -16 -15 -14 -13 -12 -11 -10 -10 -10 -10 -9 -9 -9 -8 -8 -8 -8 -8 -8 -9
-9 -10 -10 -11 -11 -12 -12 -12 -13 -13 -13 -13 -14 -14 -15 -15 -15 -15 -16 -16 -18 -16 -17 -17 -16 -18 -18 -17 -16 -14 -13 -13 -12 -11 -11 -10 -10 -10 -10 -9 -8 -8 -8 -10 -9 -9 -10
-9 -10 -11 -11 -11 -12 -13 -13 -13 -13 -13 -14 -15 -15 -16 -16 -15 -16 -17 -18 -17 -17 -16 -18 -18 -18 -18 -17 -16 -15 -14 -13 -12 -12 -14 -14 -11 -10 -10 -9 -9 -9 -9 -11 -11 -10 -10
-9 -10 -11 -12 -12 -12 -13 -13 -13 -14 -14 -14 -15 -15 -16 -16 -16 -17 -18 -18 -17 -17 -17 -17 -18 -18 -17 -17 -17 -15 -14 -13 -12 -12 -12 -13 -11 -10 -10 -10 -10 -9 -10 -9 -9 -10 -10
-10 -11 -11 -12 -12 -12 -13 -13 -13 -14 -14 -14 -15 -16 -16 -16 -16 -17 -18 -18 -17 -18 -18 -18 -17 -17 -17 -18 -17 -16 -15 -14 -13 -13 -12 -12 -11 -11 -11 -11 -10 -10 -10 -10 -11 -11 -10
-10 -11 -11 -12 -12 -13 -13 -14 -14 -14 -14 -15 -15 -16 -16 -16 -16 -17 -18 -17 -17 -17 -18 -18 -17 -18 -18 -18 -17 -17 -16 -15 -14 -14 -13 -13 -13 -12 -11 -10 -11 -10 -9 -10 -10 -10 -10
-10 -11 -12 -12 -13 -14 -14 -14 -14 -14 -14 -15 -15 -16 -16 -16 -16 -16 -17 -18 -17 -17 -17 -18 -18 -18 -17 -18 -18 -18 -17 -17 -15 -15 -13 -13 -13 -12 -12 -12 -12 -11 -10 -10 -10 -11 -11
-11 -12 -12 -12 -13 -14 -14 -14 -14 -14 -15 -15 -15 -16 -16 -16 -16 -16 -16 -17 -17 -17 -17 -18 -18 -18 -18 -17 -18 -17 -17 -17 -17 -15 -15 -14 -13 -13 -14 -13 -11 -11 -11 -10 -10 -12 -12
-11 -12 -12 -13 -13 -14 -14 -14 -14 -14 -15 -15 -15 -16 -16 -16 -16 -16 -16 -16 -17 -17 -17 -17 -17 -17 -18 -17 -17 -17 -17 -17 -17 -16 -16 -15 -14 -14 -13 -12 -12 -12 -11 -11 -11 -11 -12
-11 -12 -12 -13 -14 -14 -14 -14 -14 -14 -15 -15 -15 -16 -16 -16 -16 -16 -16 -16 -16 -16 -16 -16 -16 -17 -17 -18 -18 -17 -17 -16 -16 -16 -16 -15 -15 -14 -14 -13 -12 -11 -11 -11 -11 -11 -12
-11 -12 -12 -13 -13 -14 -15 -14 -14 -15 -15 -15 -15 -15 -15 -16 -16 -16 -17 -17 -16 -16 -16 -16 -16 -16 -16 -17 -17 -17 -17 -17 -17 -16 -16 -16 -15 -15 -14 -13 -13 -13 -12 -12 -11 -11 -11
-12 -13 -13 -13 -13 -15 -15 -14 -14 -15 -15 -15 -15 -15 -15 -15 -16 -16 -17 -17 -17 -16 -16 -16 -16 -16 -16 -16 -16 -16 -16 -16 -16 -16 -16 -15 -15 -15 -15 -14 -14 -13 -13 -13 -13 -12 -12
-13 -13 -13 -14 -14 -14 -15 -14 -14 -15 -15 -15 -15 -15 -15 -15 -15 -16 -16 -16 -16 -16 -16 -16 -16 -16 -16 -16 -16 -16 -16 -16 -16 -15 -15 -15 -15 -14 -14 -15 -14 -14 -14 -13 -13 -12 -12
-13 -13 -13 -13 -14 -16 -15 -15 -15 -15 -15 -15 -15 -15 -15 -15 -15 -16 -16 -16 -16 -16 -16 -16 -16 -16 -16 -16 -16 -16 -16 -16 -16 -16 -16 -15 -15 -15 -14 -14 -14 -13 -14 -14 -13 -13 -13
-14 -13 -13 -13 -14 -16 -15 -15 -15 -15 -15 -15 -15 -15 -15 -15 -15 -16 -16 -16 -16 -16 -16 -16 -16 -16 -16 -16 -16 -16 -16 -16 -15 -15 -15 -15 -15 -15 -15 -15 -14 -14 -14 -14 -14 -13 -14
-13 -13 -13 -14 -14 -16 -15 -15 -15 -15 -15 -15 -15 -15 -15 -15 -15 -15 -16 -16 -16 -16 -16 -16 -16 -16 -16 -16 -16 -16 -16 -16 -16 -15 -15 -15 -15 -15 -15 -15 -14 -14 -14 -14 -14 -14 -14
-13 -13 -14 -14 -15 -16 -15 -15 -15 -15 -15 -15 -15 -15 -15 -15 -15 -15 -16 -16 -16 -16 -16 -16 -16 -16 -16 -16 -16 -16 -16 -16 -16 -16 -16 -16 -16 -16 -15 -15 -15 -15 -14 -14 -14 -14 -14

GFSGBSN_500_temp_084.txt.gz
Temp
-4 -4 -4 -4 -5 -5 -6 -6 -7 -7 -7 -7 -7 -7 -7 -7 -6 -6 -6 -6 -5 -6 -5 -5 -5 -5 -5 -5 -4 -4 -5 -5 -5 -5 -5 -5 -5 -5 -5 -5 -5 -5 -5 -4 -4 -4 -4
-4 -4 -5 -5 -5 -5 -6 -7 -8 -8 -8 -8 -8 -7 -7 -7 -7 -7 -6 -6 -6 -5 -6 -5 -5 -5 -5 -5 -5 -5 -5 -5 -5 -5 -5 -5 -5 -5 -6 -5 -6 -6 -5 -5 -5 -5 -4
-4 -4 -4 -4 -5 -5 -6 -7 -8 -8 -8 -8 -8 -8 -8 -7 -7 -7 -7 -6 -6 -6 -5 -6 -5 -5 -5 -5 -6 -6 -6 -6 -5 -5 -5 -6 -6 -5 -5 -6 -6 -6 -6 -5 -5 -5 -5
-4 -4 -5 -5 -5 -5 -6 -7 -8 -8 -8 -8 -8 -8 -8 -8 -8 -8 -7 -7 -7 -7 -6 -6 -6 -5 -5 -5 -6 -6 -6 -6 -6 -5 -5 -5 -6 -6 -6 -6 -6 -7 -6 -7 -6 -5 -5
-4 -4 -4 -5 -5 -6 -7 -8 -8 -8 -8 -8 -8 -8 -8 -9 -8 -8 -8 -8 -7 -7 -7 -6 -6 -6 -5 -6 -6 -6 -6 -7 -6 -6 -6 -5 -5 -6 -6 -6 -6 -6 -6 -6 -6 -5 -5
-5 -5 -5 -5 -6 -6 -7 -8 -8 -8 -9 -9 -9 -9 -9 -9 -9 -9 -8 -8 -8 -7 -7 -7 -6 -6 -6 -7 -6 -7 -7 -7 -7 -6 -6 -6 -6 -6 -6 -6 -6 -6 -6 -5 -6 -5 -5
-5 -5 -5 -6 -6 -6 -7 -8 -9 -9 -9 -9 -9 -9 -10 -10 -9 -9 -9 -9 -9 -8 -8 -7 -7 -7 -6 -7 -7 -7 -8 -8 -7 -7 -6 -7 -6 -6 -6 -6 -7 -8 -8 -7 -6 -4 -5
-5 -6 -6 -6 -6 -7 -8 -9 -9 -9 -9 -10 -10 -11 -10 -10 -10 -10 -10 -9 -9 -8 -9 -8 -8 -8 -7 -7 -7 -7 -8 -8 -8 -7 -7 -7 -6 -6 -7 -7 -7 -8 -7 -7 -6 -6 -4
-6 -6 -6 -6 -7 -8 -8 -9 -10 -9 -10 -10 -11 -11 -11 -11 -11 -11 -11 -10 -10 -9 -9 -9 -8 -8 -9 -8 -8 -8 -8 -9 -9 -8 -8 -7 -7 -7 -7 -7 -7 -7 -8 -7 -7 -7 -6
-6 -7 -7 -7 -8 -8 -9 -10 -10 -10 -10 -11 -11 -12 -12 -12 -11 -12 -11 -11 -11 -11 -11 -11 -10 -9 -9 -9 -8 -8 -9 -9 -9 -9 -8 -8 -8 -8 -7 -7 -7 -7 -7 -7 -7 -7 -6
-7 -7 -7 -8 -8 -9 -9 -10 -10 -11 -11 -12 -12 -12 -12 -12 -13 -13 -13 -14 -14 -15 -15 -14 -12 -10 -10 -10 -11 -10 -10 -10 -9 -10 -9 -8 -8 -8 -8 -8 -7 -7 -8 -7 -8 -8 -7
-7 -7 -7 -8 -9 -9 -10 -10 -11 -11 -12 -12 -12 -12 -12 -13 -13 -14 -14 -15 -14 -14 -15 -16 -15 -14 -12 -11 -12 -12 -11 -11 -10 -10 -10 -9 -9 -9 -8 -8 -8 -7 -9 -9 -8 -8 -8
-7 -8 -7 -8 -9 -10 -10 -11 -11 -12 -12 -13 -13 -13 -13 -13 -14 -14 -15 -14 -15 -16 -16 -16 -16 -16 -14 -14 -13 -14 -11 -11 -11 -10 -10 -10 -9 -9 -10 -9 -8 -9 -9 -9 -9 -9 -8
-7 -7 -7 -8 -10 -11 -11 -11 -12 -12 -13 -13 -13 -13 -13 -14 -14 -15 -15 -15 -15 -15 -16 -15 -15 -16 -16 -16 -15 -15 -15 -12 -12 -11 -12 -11 -11 -11 -9 -8 -8 -9 -9 -9 -9 -9 -8
-7 -8 -8 -9 -10 -11 -12 -12 -13 -13 -13 -13 -13 -13 -14 -15 -15 -15 -15 -15 -15 -15 -15 -15 -15 -16 -16 -15 -15 -14 -15 -14 -13 -12 -13 -13 -11 -12 -12 -9 -11 -10 -9 -9 -8 -8 -8
-7 -8 -8 -9 -11 -12 -12 -12 -13 -13 -13 -13 -14 -14 -14 -15 -15 -15 -15 -16 -15 -15 -16 -15 -15 -16 -15 -15 -15 -15 -15 -14 -13 -13 -12 -13 -12 -11 -11 -12 -11 -10 -10 -10 -9 -9 -8
-7 -8 -9 -10 -11 -12 -13 -13 -13 -13 -14 -14 -14 -14 -15 -16 -16 -15 -15 -16 -16 -16 -16 -16 -15 -15 -15 -15 -15 -15 -13 -14 -13 -12 -12 -13 -12 -11 -12 -10 -11 -10 -10 -10 -9 -9 -8
-8 -8 -9 -11 -12 -13 -13 -13 -14 -13 -14 -14 -14 -15 -15 -15 -16 -16 -15 -16 -16 -16 -16 -16 -15 -16 -15 -15 -15 -14 -14 -13 -13 -13 -13 -12 -12 -12 -12 -11 -11 -11 -11 -10 -10 -8 -8
-9 -9 -10 -11 -12 -13 -13 -14 -14 -14 -14 -14 -14 -15 -15 -15 -16 -16 -16 -16 -16 -16 -16 -16 -16 -16 -15 -15 -15 -15 -15 -14 -14 -13 -12 -12 -12 -12 -12 -12 -12 -11 -11 -11 -10 -10 -9
-9 -10 -11 -12 -12 -13 -13 -14 -15 -14 -14 -14 -14 -16 -17 -16 -16 -17 -17 -17 -15 -16 -16 -16 -16 -15 -15 -16 -15 -15 -15 -15 -14 -13 -13 -12 -13 -12 -13 -13 -12 -11 -11 -11 -11 -10 -10
-10 -10 -11 -12 -13 -13 -13 -16 -15 -14 -14 -14 -14 -15 -16 -16 -16 -16 -16 -16 -16 -17 -16 -16 -16 -16 -16 -16 -17 -16 -16 -15 -15 -14 -14 -13 -14 -13 -12 -13 -13 -11 -11 -12 -11 -10 -11
-11 -11 -12 -13 -13 -13 -14 -15 -15 -14 -14 -14 -14 -15 -15 -16 -16 -16 -16 -16 -16 -16 -16 -16 -16 -17 -16 -16 -16 -17 -16 -16 -15 -15 -14 -13 -13 -13 -14 -13 -12 -13 -12 -12 -11 -10 -12
-11 -11 -12 -13 -13 -13 -14 -16 -15 -15 -14 -15 -15 -15 -15 -15 -16 -18 -16 -16 -16 -16 -16 -16 -15 -17 -16 -16 -16 -16 -16 -15 -16 -15 -15 -14 -14 -13 -13 -13 -12 -12 -13 -12 -11 -12 -12
-11 -12 -12 -13 -13 -13 -14 -16 -15 -15 -15 -15 -15 -15 -15 -15 -15 -16 -16 -16 -16 -16 -16 -16 -15 -16 -16 -16 -16 -16 -16 -17 -17 -16 -16 -16 -15 -14 -15 -14 -14 -14 -13 -12 -12 -12 -13
-11 -12 -12 -13 -13 -14 -14 -16 -15 -15 -15 -15 -15 -15 -15 -15 -15 -15 -16 -16 -16 -16 -16 -16 -16 -16 -16 -16 -16 -16 -17 -17 -17 -17 -16 -16 -16 -15 -15 -15 -15 -14 -14 -15 -15 -15 -13
-12 -12 -13 -13 -13 -13 -14 -15 -15 -15 -15 -15 -15 -15 -15 -15 -15 -15 -16 -16 -16 -16 -16 -16 -16 -16 -16 -16 -16 -16 -17 -18 -17 -16 -16 -17 -17 -16 -16 -15 -15 -15 -14 -14 -14 -16 -13
-12 -13 -14 -13 -13 -13 -15 -15 -15 -15 -15 -15 -15 -15 -15 -15 -15 -16 -16 -16 -16 -16 -16 -16 -16 -16 -16 -16 -16 -16 -16 -16 -16 -16 -16 -16 -16 -16 -17 -17 -16 -15 -14 -14 -15 -16 -14
-13 -14 -13 -13 -13 -14 -15 -15 -15 -15 -15 -15 -15 -15 -15 -15 -15 -16 -16 -16 -16 -16 -16 -16 -16 -16 -16 -16 -16 -16 -16 -16 -16 -16 -15 -16 -16 -16 -16 -18 -17 -15 -15 -15 -14 -15 -14
-14 -13 -13 -13 -13 -15 -16 -15 -15 -15 -15 -15 -15 -15 -15 -15 -15 -15 -15 -16 -16 -16 -16 -16 -16 -16 -16 -16 -16 -16 -16 -16 -16 -16 -16 -16 -15 -15 -16 -15 -14 -13 -14 -15 -15 -15 -15

GFSGBSN_500_temp_087.txt.gz
Temp
-4 -4 -4 -4 -4 -4 -4 -5 -6 -6 -6 -7 -7 -7 -7 -7 -7 -7 -6 -6 -6 -5 -5 -5 -5 -5 -5 -5 -5 -5 -5 -5 -5 -5 -5 -5 -6 -5 -5 -4 -4 -5 -5 -4 -5 -5 -5
-4 -4 -4 -4 -4 -4 -5 -5 -6 -7 -7 -7 -7 -7 -7 -7 -7 -7 -7 -7 -6 -6 -6 -5 -5 -5 -5 -5 -5 -6 -5 -5 -5 -5 -5 -5 -6 -5 -5 -5 -5 -5 -5 -5 -4 -5 -5
-4 -4 -4 -4 -4 -4 -5 -5 -6 -7 -7 -7 -7 -7 -7 -7 -7 -7 -7 -7 -7 -7 -6 -6 -5 -5 -5 -5 -6 -6 -5 -5 -5 -5 -6 -6 -6 -5 -5 -5 -5 -5 -6 -5 -4 -4 -5
-4 -4 -4 -4 -4 -5 -5 -6 -6 -7 -8 -8 -8 -8 -8 -8 -8 -7 -7 -7 -7 -7 -7 -6 -6 -5 -6 -5 -6 -6 -6 -6 -6 -5 -5 -6 -6 -5 -5 -5 -6 -6 -5 -5 -5 -4 -5
-4 -5 -5 -5 -5 -5 -6 -6 -7 -8 -8 -8 -8 -8 -8 -8 -8 -8 -8 -8 -7 -8 -8 -7 -6 -6 -6 -6 -6 -6 -6 -6 -6 -6 -6 -6 -5 -5 -6 -5 -5 -5 -6 -5 -4 -4 -5
-5 -5 -5 -5 -6 -6 -6 -7 -7 -8 -9 -9 -9 -9 -9 -9 -9 -9 -8 -8 -8 -8 -8 -8 -7 -7 -7 -6 -6 -7 -7 -7 -7 -6 -6 -6 -6 -5 -5 -5 -5 -5 -6 -6 -6 -4 -4
-5 -6 -6 -6 -6 -6 -7 -7 -7 -8 -9 -9 -9 -9 -9 -10 -10 -9 -9 -9 -9 -8 -8 -8 -8 -8 -7 -7 -6 -7 -7 -7 -7 -6 -6 -6 -6 -6 -6 -6 -6 -6 -7 -7 -6 -5 -4
-5 -6 -6 -6 -6 -6 -7 -8 -8 -9 -9 -10 -10 -10 -10 -11 -10 -10 -10 -10 -10 -9 -9 -9 -9 -8 -7 -8 -8 -7 -7 -7 -7 -7 -7 -6 -5 -7 -7 -7 -7 -6 -7 -7 -7 -5 -6
-6 -6 -5 -6 -6 -6 -7 -8 -9 -9 -10 -10 -10 -11 -11 -11 -11 -11 -10 -10 -10 -10 -9 -10 -9 -9 -9 -8 -8 -8 -8 -8 -8 -8 -7 -7 -7 -7 -7 -7 -7 -7 -7 -7 -7 -7 -7
-5 -5 -6 -6 -6 -6 -7 -8 -9 -10 -10 -10 -11 -12 -12 -12 -12 -11 -11 -11 -11 -10 -10 -10 -10 -10 -9 -9 -9 -9 -8 -8 -8 -8 -8 -7 -8 -7 -7 -7 -8 -7 -6 -8 -6 -7 -7
-6 -5 -6 -6 -6 -7 -7 -9 -10 -10 -11 -11 -11 -12 -12 -12 -12 -12 -12 -12 -12 -12 -12 -13 -10 -9 -10 -10 -11 -10 -10 -9 -8 -9 -8 -7 -8 -8 -7 -8 -7 -7 -8 -9 -8 -7 -7
-5 -5 -6 -6 -7 -7 -8 -10 -11 -11 -12 -12 -12 -12 -12 -12 -13 -13 -13 -14 -14 -14 -14 -14 -14 -13 -12 -11 -12 -11 -11 -10 -10 -10 -9 -9 -8 -8 -7 -8 -8 -8 -8 -8 -8 -7 -8
-6 -6 -6 -7 -7 -8 -9 -10 -11 -11 -12 -12 -13 -13 -13 -13 -13 -14 -14 -14 -14 -14 -15 -15 -16 -15 -15 -14 -13 -13 -11 -11 -10 -9 -9 -9 -8 -8 -9 -8 -8 -8 -9 -8 -8 -7 -7
-6 -6 -6 -7 -8 -9 -10 -11 -12 -12 -12 -13 -13 -13 -13 -14 -14 -14 -15 -15 -15 -15 -16 -15 -16 -15 -15 -15 -14 -14 -14 -11 -12 -11 -11 -10 -9 -9 -9 -8 -8 -8 -8 -8 -8 -8 -8
-6 -6 -7 -8 -9 -10 -11 -12 -12 -13 -13 -13 -13 -14 -14 -14 -14 -15 -15 -15 -16 -15 -15 -15 -15 -15 -16 -16 -16 -15 -15 -14 -13 -12 -12 -12 -10 -10 -10 -11 -9 -8 -8 -8 -9 -9 -9
-6 -7 -8 -9 -9 -10 -11 -12 -12 -13 -13 -13 -13 -14 -14 -15 -15 -14 -15 -15 -16 -16 -16 -15 -15 -16 -16 -16 -15 -15 -15 -14 -14 -14 -13 -13 -11 -10 -10 -12 -10 -9 -9 -9 -9 -8 -9
-6 -8 -9 -9 -10 -11 -11 -12 -13 -14 -13 -14 -14 -14 -15 -14 -13 -15 -15 -16 -16 -15 -14 -16 -15 -16 -15 -15 -15 -15 -14 -14 -14 -14 -13 -13 -12 -11 -12 -12 -10 -9 -9 -9 -9 -8 -9
-8 -9 -10 -10 -11 -12 -12 -13 -13 -14 -14 -14 -14 -14 -15 -16 -16 -16 -16 -16 -15 -15 -16 -16 -15 -16 -15 -15 -15 -14 -15 -14 -14 -14 -14 -13 -12 -12 -12 -11 -12 -10 -9 -9 -9 -8 -10
-9 -10 -10 -11 -11 -12 -13 -13 -14 -14 -14 -14 -14 -15 -16 -16 -16 -16 -16 -16 -15 -16 -16 -16 -16 -16 -16 -15 -15 -15 -15 -14 -14 -14 -13 -13 -12 -11 -11 -11 -11 -11 -11 -10 -9 -9 -9
-10 -10 -11 -11 -12 -12 -13 -13 -15 -14 -14 -14 -14 -15 -16 -17 -17 -16 -16 -16 -16 -17 -16 -17 -16 -16 -16 -16 -15 -16 -15 -15 -15 -14 -13 -13 -12 -12 -12 -11 -11 -12 -11 -10 -9 -9 -10
-10 -11 -11 -11 -12 -13 -13 -14 -15 -15 -14 -14 -14 -15 -16 -16 -17 -17 -17 -17 -17 -16 -16 -16 -16 -16 -16 -16 -16 -15 -15 -15 -15 -15 -13 -14 -12 -12 -12 -12 -12 -11 -12 -11 -10 -10 -11
-11 -11 -11 -11 -12 -13 -13 -13 -14 -15 -14 -14 -14 -14 -15 -16 -17 -17 -16 -16 -16 -16 -16 -15 -16 -16 -16 -16 -15 -15 -14 -15 -15 -15 -14 -13 -13 -13 -11 -12 -12 -11 -10 -11 -12 -11 -11
-11 -11 -11 -12 -12 -13 -13 -14 -14 -14 -15 -14 -14 -15 -15 -15 -15 -16 -16 -16 -16 -16 -15 -16 -15 -16 -16 -16 -16 -16 -15 -15 -15 -14 -14 -13 -13 -13 -13 -13 -13 -12 -13 -13 -13 -12 -11
-11 -11 -11 -12 -12 -13 -13 -15 -15 -14 -15 -15 -15 -15 -15 -15 -15 -16 -16 -16 -16 -16 -16 -16 -15 -15 -16 -16 -16 -16 -16 -15 -15 -15 -14 -13 -14 -14 -13 -13 -13 -13 -12 -13 -13 -13 -11
-11 -11 -12 -12 -13 -13 -13 -15 -15 -15 -15 -15 -15 -15 -15 -15 -15 -15 -16 -16 -16 -16 -16 -15 -15 -15 -15 -16 -16 -16 -16 -16 -15 -16 -15 -15 -16 -14 -14 -14 -13 -14 -13 -13 -14 -13 -12
-12 -11 -12 -13 -13 -13 -13 -15 -15 -15 -15 -15 -15 -15 -15 -15 -15 -15 -15 -15 -15 -15 -16 -16 -16 -15 -16 -15 -15 -15 -16 -16 -15 -16 -16 -16 -15 -16 -15 -15 -14 -14 -13 -14 -15 -13 -12
-11 -11 -12 -13 -13 -13 -13 -15 -15 -15 -15 -15 -15 -15 -15 -15 -15 -15 -15 -15 -16 -16 -16 -16 -16 -16 -16 -16 -16 -15 -15 -16 -15 -15 -15 -15 -15 -15 -16 -16 -15 -14 -13 -14 -15 -14 -13
-12 -12 -13 -13 -13 -13 -14 -15 -15 -15 -15 -15 -15 -15 -15 -15 -15 -15 -15 -15 -16 -16 -16 -16 -16 -16 -16 -16 -16 -16 -16 -17 -16 -16 -16 -16 -15 -16 -16 -16 -16 -13 -14 -14 -15 -15 -13
-12 -13 -13 -13 -14 -14 -15 -15 -15 -15 -15 -15 -15 -15 -15 -15 -15 -15 -15 -15 -16 -16 -16 -16 -16 -16 -16 -16 -16 -16 -16 -16 -17 -16 -16 -16 -16 -16 -16 -15 -14 -15 -15 -15 -15 -16 -16

GFSGBSN_500_temp_093.txt.gz
Temp
-4 -4 -4 -4 -4 -4 -4 -4 -4 -5 -5 -5 -5 -6 -6 -6 -7 -7 -7 -7 -7 -7 -6 -6 -5 -5 -6 -6 -6 -6 -7 -7 -7 -6 -6 -7 -6 -6 -6 -6 -5 -5 -4 -5 -4 -5 -5
-4 -4 -4 -4 -4 -4 -4 -4 -4 -4 -5 -5 -5 -6 -6 -6 -7 -7 -7 -7 -7 -7 -7 -7 -6 -6 -6 -6 -6 -6 -7 -7 -7 -7 -6 -7 -6 -6 -6 -5 -5 -6 -5 -6 -5 -5 -6
-4 -4 -4 -4 -4 -4 -4 -4 -4 -5 -5 -5 -5 -6 -6 -6 -7 -7 -7 -7 -7 -7 -7 -7 -7 -6 -6 -6 -6 -6 -7 -7 -7 -7 -7 -6 -6 -6 -6 -6 -6 -5 -5 -5 -6 -6 -6
-4 -4 -4 -4 -4 -4 -4 -5 -5 -5 -5 -5 -6 -6 -6 -7 -7 -8 -8 -7 -7 -7 -7 -7 -7 -7 -7 -6 -7 -7 -7 -7 -7 -7 -7 -6 -5 -5 -6 -5 -6 -5 -5 -5 -6 -6 -5
-4 -4 -4 -4 -4 -4 -5 -5 -5 -5 -5 -6 -7 -7 -7 -8 -8 -8 -8 -8 -8 -8 -8 -7 -7 -7 -7 -7 -8 -7 -7 -7 -7 -7 -7 -7 -6 -6 -5 -6 -6 -5 -5 -6 -6 -6 -5
-4 -4 -4 -5 -5 -5 -5 -5 -5 -6 -6 -7 -7 -8 -8 -9 -9 -9 -9 -8 -8 -8 -8 -8 -8 -7 -7 -7 -7 -7 -7 -7 -7 -7 -7 -7 -7 -6 -6 -6 -6 -6 -6 -5 -6 -6 -6
-4 -4 -5 -5 -4 -4 -4 -5 -6 -6 -7 -7 -8 -9 -9 -10 -10 -10 -10 -9 -9 -9 -9 -9 -8 -8 -7 -7 -8 -8 -7 -7 -7 -7 -7 -7 -7 -6 -6 -6 -6 -7 -6 -5 -5 -5 -6
-4 -4 -4 -4 -5 -4 -5 -5 -6 -7 -8 -9 -9 -10 -10 -11 -10 -11 -11 -10 -10 -10 -10 -9 -9 -9 -8 -8 -8 -8 -7 -7 -7 -7 -7 -7 -7 -7 -7 -7 -7 -8 -7 -6 -6 -5 -6
-5 -5 -4 -5 -4 -4 -5 -6 -7 -8 -9 -10 -10 -11 -11 -11 -11 -12 -11 -11 -11 -11 -11 -10 -10 -9 -9 -9 -8 -8 -9 -8 -8 -8 -7 -7 -8 -8 -8 -8 -8 -9 -8 -7 -7 -5 -6
-5 -5 -5 -5 -4 -5 -6 -7 -8 -9 -10 -11 -11 -12 -12 -12 -12 -12 -12 -12 -12 -12 -12 -12 -11 -10 -10 -10 -10 -9 -9 -9 -9 -8 -8 -8 -8 -8 -8 -8 -8 -9 -9 -9 -7 -7 -7
-5 -5 -5 -5 -5 -5 -7 -8 -9 -10 -10 -12 -12 -13 -12 -13 -13 -13 -12 -12 -12 -12 -13 -12 -11 -11 -11 -11 -11 -10 -9 -9 -9 -9 -8 -8 -8 -8 -8 -8 -8 -9 -10 -8 -9 -9 -7
-5 -5 -4 -5 -6 -7 -8 -9 -10 -10 -11 -12 -13 -13 -13 -13 -13 -13 -13 -13 -13 -13 -13 -13 -12 -12 -11 -11 -11 -11 -10 -10 -10 -10 -9 -9 -9 -8 -8 -9 -8 -10 -9 -8 -8 -9 -8
-5 -4 -5 -6 -7 -8 -9 -10 -10 -11 -12 -13 -13 -13 -13 -13 -13 -13 -13 -14 -14 -14 -14 -14 -13 -13 -13 -12 -11 -11 -11 -10 -10 -9 -9 -9 -9 -8 -9 -9 -8 -9 -10 -9 -9 -8 -8
-4 -4 -6 -7 -8 -9 -10 -10 -11 -12 -12 -13 -13 -14 -13 -13 -13 -14 -14 -14 -14 -14 -15 -15 -15 -14 -15 -14 -13 -12 -12 -11 -11 -10 -10 -10 -10 -9 -9 -9 -9 -9 -10 -8 -8 -8 -8
-5 -5 -7 -8 -9 -10 -10 -11 -12 -12 -13 -13 -13 -13 -13 -13 -14 -14 -14 -15 -15 -15 -15 -15 -15 -15 -14 -14 -14 -13 -13 -13 -13 -11 -10 -10 -10 -10 -9 -9 -9 -9 -9 -9 -10 -9 -8
-6 -7 -8 -9 -9 -10 -11 -11 -12 -13 -13 -13 -14 -13 -14 -14 -14 -15 -15 -15 -15 -15 -15 -15 -15 -16 -15 -15 -15 -14 -14 -14 -14 -12 -11 -11 -10 -11 -10 -10 -10 -9 -9 -10 -10 -9 -8
-7 -8 -9 -10 -10 -10 -11 -12 -13 -13 -14 -14 -14 -14 -14 -15 -15 -15 -16 -15 -15 -16 -15 -15 -15 -14 -15 -16 -16 -15 -15 -14 -15 -13 -12 -11 -10 -11 -11 -10 -11 -10 -10 -10 -11 -10 -9
-8 -8 -9 -9 -10 -11 -11 -12 -13 -13 -14 -14 -14 -14 -14 -14 -15 -15 -16 -16 -16 -15 -15 -15 -15 -15 -15 -15 -16 -16 -16 -15 -15 -15 -13 -12 -11 -12 -11 -11 -11 -10 -10 -10 -10 -11 -9
-8 -9 -9 -10 -10 -11 -12 -13 -13 -13 -14 -14 -14 -14 -14 -14 -15 -15 -16 -16 -16 -16 -15 -15 -15 -15 -15 -15 -15 -16 -16 -16 -15 -16 -15 -13 -13 -12 -12 -13 -12 -12 -11 -10 -11 -11 -10
-9 -9 -10 -10 -10 -11 -12 -13 -13 -14 -15 -14 -14 -14 -14 -14 -15 -16 -16 -16 -16 -16 -16 -15 -15 -16 -15 -15 -15 -15 -15 -16 -15 -16 -15 -14 -13 -12 -13 -13 -13 -12 -11 -11 -11 -11 -10
-9 -9 -10 -10 -10 -11 -13 -13 -13 -14 -14 -14 -14 -14 -14 -14 -15 -16 -16 -16 -16 -15 -16 -16 -17 -16 -16 -15 -15 -16 -16 -16 -15 -15 -15 -15 -14 -13 -14 -13 -13 -13 -11 -11 -11 -11 -10
-10 -10 -10 -10 -11 -12 -13 -13 -14 -14 -14 -14 -14 -14 -15 -14 -15 -15 -15 -15 -15 -15 -15 -16 -15 -16 -17 -17 -16 -16 -16 -16 -15 -15 -15 -15 -14 -14 -14 -14 -13 -13 -13 -11 -11 -11 -11
-10 -10 -10 -10 -11 -12 -13 -13 -13 -14 -14 -14 -14 -14 -15 -15 -15 -15 -16 -15 -15 -15 -15 -16 -16 -16 -16 -17 -16 -16 -16 -15 -15 -16 -15 -15 -15 -15 -14 -14 -13 -13 -13 -12 -12 -11 -11
-10 -10 -10 -11 -12 -13 -13 -13 -14 -15 -14 -14 -14 -14 -15 -15 -15 -15 -15 -15 -15 -15 -15 -16 -16 -15 -16 -16 -17 -16 -16 -16 -16 -15 -15 -15 -15 -15 -14 -14 -13 -13 -13 -13 -12 -11 -11
-10 -11 -11 -11 -12 -12 -12 -12 -14 -15 -15 -15 -15 -15 -15 -15 -15 -15 -15 -15 -16 -16 -16 -16 -16 -15 -16 -16 -16 -16 -17 -17 -16 -16 -15 -15 -15 -15 -15 -14 -14 -13 -13 -13 -12 -12 -11
-10 -11 -11 -12 -12 -12 -12 -12 -14 -15 -15 -15 -15 -15 -15 -15 -15 -15 -15 -16 -16 -16 -16 -16 -16 -16 -16 -16 -16 -17 -17 -17 -17 -17 -16 -15 -15 -15 -14 -14 -14 -13 -12 -12 -12 -12 -11
-11 -11 -11 -12 -12 -12 -12 -12 -14 -15 -15 -15 -15 -15 -15 -15 -15 -15 -15 -15 -16 -16 -16 -16 -16 -16 -16 -16 -16 -16 -16 -17 -17 -16 -16 -16 -15 -15 -15 -14 -14 -13 -13 -13 -12 -11 -11
-11 -12 -12 -13 -13 -13 -13 -13 -15 -15 -15 -15 -15 -15 -15 -15 -15 -15 -15 -15 -16 -16 -16 -16 -16 -16 -16 -16 -16 -16 -16 -16 -16 -16 -17 -16 -16 -16 -16 -15 -14 -15 -15 -14 -12 -12 -12
-12 -12 -12 -13 -13 -13 -14 -14 -15 -15 -15 -15 -15 -15 -15 -15 -15 -15 -15 -15 -15 -15 -16 -16 -16 -16 -16 -17 -17 -17 -16 -16 -17 -17 -16 -16 -17 -17 -16 -16 -15 -15 -15 -15 -14 -14 -12

GFSGBSN_500_temp_096.txt.gz
Temp
-4 -4 -3 -4 -4 -4 -4 -4 -4 -4 -4 -4 -4 -5 -5 -5 -5 -6 -6 -6 -7 -7 -7 -7 -6 -6 -6 -6 -6 -7 -7 -8 -7 -7 -7 -7 -6 -6 -6 -6 -6 -5 -5 -5 -5 -5 -5
-4 -4 -4 -4 -4 -4 -4 -4 -4 -4 -4 -5 -5 -4 -5 -6 -6 -6 -6 -7 -7 -7 -7 -7 -7 -7 -6 -6 -6 -7 -7 -7 -8 -7 -7 -7 -7 -6 -6 -6 -6 -6 -6 -5 -5 -5 -6
-4 -4 -4 -4 -4 -4 -4 -4 -4 -4 -4 -4 -5 -5 -5 -6 -6 -7 -7 -7 -7 -7 -7 -8 -8 -7 -7 -6 -7 -7 -7 -7 -8 -7 -7 -7 -7 -6 -6 -5 -6 -5 -6 -6 -6 -5 -5
-4 -4 -4 -4 -4 -4 -4 -4 -4 -4 -4 -5 -5 -5 -6 -6 -6 -7 -7 -8 -8 -8 -7 -8 -8 -7 -7 -7 -7 -7 -7 -7 -8 -7 -7 -7 -6 -7 -6 -6 -6 -6 -6 -5 -6 -5 -5
-4 -4 -4 -4 -4 -4 -4 -4 -4 -4 -4 -5 -6 -6 -7 -7 -7 -8 -8 -8 -8 -8 -8 -8 -8 -8 -8 -7 -7 -7 -7 -7 -7 -7 -8 -7 -6 -6 -6 -6 -6 -6 -6 -6 -6 -6 -6
-4 -4 -4 -4 -4 -4 -4 -4 -4 -4 -5 -6 -7 -7 -8 -8 -9 -9 -9 -9 -9 -9 -9 -8 -8 -8 -8 -8 -7 -7 -8 -7 -7 -7 -7 -7 -7 -7 -6 -6 -6 -6 -7 -6 -6 -6 -6
-4 -4 -4 -4 -4 -4 -4 -4 -4 -5 -6 -7 -8 -8 -9 -10 -10 -10 -10 -10 -10 -10 -9 -9 -9 -8 -8 -8 -8 -8 -8 -8 -7 -7 -7 -7 -7 -7 -7 -7 -6 -7 -7 -7 -6 -6 -6
-5 -5 -4 -4 -4 -4 -4 -4 -5 -7 -7 -8 -9 -10 -11 -11 -11 -11 -12 -12 -11 -11 -10 -10 -9 -9 -9 -9 -9 -8 -8 -8 -8 -8 -7 -7 -7 -7 -7 -7 -7 -7 -7 -7 -7 -6 -6
-5 -5 -4 -4 -4 -4 -5 -6 -6 -7 -8 -9 -10 -11 -12 -12 -12 -12 -12 -12 -12 -12 -11 -11 -10 -10 -10 -9 -9 -9 -9 -9 -9 -8 -8 -8 -8 -8 -7 -7 -7 -7 -7 -7 -7 -7 -7
-5 -5 -4 -4 -4 -5 -6 -6 -7 -9 -9 -10 -11 -12 -12 -13 -13 -13 -13 -13 -12 -12 -12 -11 -11 -11 -11 -10 -10 -10 -10 -10 -10 -9 -9 -9 -9 -8 -8 -8 -7 -8 -8 -8 -9 -7 -7
-5 -5 -5 -5 -5 -6 -7 -8 -9 -9 -10 -11 -12 -12 -13 -13 -13 -13 -13 -13 -13 -12 -12 -12 -11 -12 -12 -11 -10 -11 -10 -10 -10 -10 -9 -9 -9 -9 -8 -8 -8 -8 -8 -9 -8 -7 -7
-5 -5 -5 -5 -6 -7 -7 -8 -9 -10 -11 -12 -12 -13 -13 -13 -13 -13 -13 -13 -13 -13 -13 -13 -12 -12 -12 -12 -11 -11 -11 -11 -11 -10 -10 -10 -10 -10 -9 -9 -8 -9 -9 -8 -9 -9 -7
-6 -6 -6 -6 -7 -7 -8 -9 -10 -10 -11 -12 -13 -13 -13 -13 -13 -13 -13 -13 -13 -14 -14 -14 -14 -14 -13 -12 -12 -11 -11 -11 -11 -10 -10 -10 -10 -9 -9 -9 -8 -9 -9 -9 -9 -9 -8
-6 -6 -7 -7 -8 -8 -9 -9 -10 -11 -12 -12 -13 -13 -13 -13 -13 -13 -13 -14 -14 -14 -14 -15 -15 -15 -14 -13 -13 -12 -11 -11 -11 -11 -11 -11 -10 -9 -9 -9 -9 -9 -8 -8 -8 -9 -9
-7 -7 -8 -8 -8 -9 -9 -10 -10 -11 -13 -13 -13 -13 -13 -13 -13 -14 -14 -14 -14 -15 -15 -15 -15 -15 -15 -15 -14 -14 -13 -12 -12 -12 -11 -11 -11 -10 -10 -10 -10 -9 -9 -9 -9 -9 -9
-7 -7 -8 -9 -9 -9 -10 -10 -11 -12 -13 -13 -14 -14 -14 -13 -13 -14 -14 -14 -14 -15 -15 -16 -16 -15 -15 -16 -15 -15 -14 -13 -13 -12 -12 -12 -11 -11 -11 -10 -11 -10 -10 -10 -10 -9 -9
-7 -8 -8 -9 -9 -9 -10 -11 -12 -13 -13 -14 -14 -14 -14 -14 -14 -14 -15 -15 -15 -15 -15 -16 -16 -16 -16 -16 -16 -15 -15 -14 -14 -13 -13 -12 -12 -12 -11 -11 -11 -11 -10 -10 -10 -10 -9
-8 -8 -9 -9 -9 -9 -10 -11 -12 -13 -14 -14 -14 -14 -14 -15 -15 -16 -16 -16 -15 -16 -16 -16 -15 -15 -15 -15 -15 -15 -16 -15 -15 -14 -14 -13 -13 -13 -12 -11 -12 -11 -11 -11 -10 -10 -9
-8 -8 -9 -9 -9 -9 -10 -11 -12 -13 -13 -14 -14 -14 -14 -14 -15 -15 -16 -16 -16 -16 -16 -16 -16 -15 -15 -15 -15 -16 -16 -16 -15 -15 -15 -14 -13 -13 -13 -12 -12 -12 -11 -11 -10 -11 -10
-8 -9 -9 -10 -9 -10 -11 -12 -13 -13 -14 -14 -14 -14 -14 -14 -14 -15 -15 -15 -15 -16 -16 -16 -16 -16 -15 -15 -15 -15 -15 -15 -16 -16 -16 -16 -14 -13 -14 -13 -12 -12 -11 -11 -11 -11 -10
-9 -9 -10 -10 -10 -10 -11 -12 -13 -13 -14 -14 -14 -14 -14 -14 -14 -14 -15 -15 -15 -15 -15 -15 -15 -15 -15 -16 -16 -15 -15 -15 -16 -16 -16 -16 -16 -14 -14 -14 -13 -13 -13 -12 -12 -12 -11
-9 -10 -10 -10 -10 -11 -12 -12 -13 -13 -14 -14 -14 -14 -14 -14 -14 -14 -15 -15 -15 -15 -15 -16 -15 -16 -15 -16 -16 -16 -16 -15 -16 -16 -16 -16 -16 -15 -14 -14 -14 -14 -13 -13 -12 -12 -12
-10 -10 -10 -10 -11 -11 -12 -12 -13 -13 -14 -14 -14 -14 -14 -14 -14 -15 -15 -15 -15 -15 -15 -15 -15 -15 -16 -16 -16 -16 -16 -16 -16 -16 -16 -16 -15 -15 -14 -14 -14 -14 -14 -13 -13 -12 -11
-10 -10 -10 -10 -11 -12 -12 -12 -12 -13 -14 -14 -15 -15 -15 -15 -15 -15 -15 -15 -15 -15 -15 -15 -15 -15 -16 -15 -16 -16 -16 -16 -17 -17 -16 -16 -15 -15 -14 -15 -14 -14 -14 -13 -13 -12 -12
-11 -11 -11 -11 -12 -12 -12 -12 -12 -13 -15 -14 -15 -15 -15 -15 -15 -15 -15 -15 -15 -15 -15 -15 -15 -15 -16 -16 -17 -16 -17 -16 -16 -16 -17 -17 -16 -15 -14 -14 -14 -14 -14 -14 -13 -13 -13
-11 -11 -11 -11 -12 -12 -12 -12 -12 -14 -15 -15 -15 -15 -15 -15 -15 -15 -15 -15 -16 -16 -16 -16 -16 -16 -16 -16 -16 -16 -17 -17 -17 -16 -16 -16 -16 -16 -15 -15 -14 -14 -14 -13 -13 -13 -13
-11 -11 -11 -12 -12 -12 -12 -13 -13 -14 -15 -15 -15 -15 -15 -15 -15 -15 -15 -15 -15 -16 -16 -16 -16 -16 -16 -16 -16 -16 -16 -17 -17 -17 -17 -17 -17 -17 -16 -15 -15 -14 -14 -14 -14 -13 -13
-11 -11 -11 -12 -13 -13 -13 -13 -14 -14 -15 -15 -15 -15 -15 -15 -15 -15 -15 -15 -15 -16 -16 -16 -16 -16 -16 -16 -16 -16 -16 -16 -16 -17 -17 -17 -16 -16 -16 -15 -15 -14 -14 -14 -13 -13 -13
-11 -11 -11 -12 -13 -13 -13 -14 -14 -15 -15 -15 -15 -15 -15 -15 -15 -15 -15 -15 -15 -15 -16 -16 -16 -16 -16 -16 -16 -16 -17 -16 -17 -16 -17 -17 -17 -16 -16 -16 -15 -14 -14 -14 -14 -12 -13

GFSGBSN_500_temp_102.txt.gz
Temp
-4 -4 -4 -4 -4 -4 -4 -4 -4 -3 -3 -3 -3 -3 -3 -3 -3 -4 -4 -4 -4 -5 -5 -5 -6 -7 -7 -6 -6 -6 -6 -6 -7 -8 -7 -7 -6 -5 -5 -5 -5 -5 -5 -5 -4 -6 -5
-4 -4 -4 -4 -4 -4 -4 -4 -3 -3 -3 -3 -3 -3 -3 -4 -4 -4 -4 -5 -5 -5 -6 -6 -6 -7 -7 -7 -6 -6 -7 -7 -7 -8 -7 -7 -6 -5 -5 -5 -5 -5 -5 -5 -5 -5 -5
-4 -4 -4 -4 -4 -4 -4 -4 -3 -2 -3 -3 -3 -3 -4 -4 -5 -5 -5 -5 -6 -6 -7 -7 -7 -7 -7 -7 -7 -7 -7 -7 -7 -8 -7 -7 -6 -6 -6 -6 -5 -6 -5 -6 -6 -5 -6
-4 -4 -4 -4 -4 -4 -4 -3 -3 -3 -3 -3 -3 -4 -4 -5 -5 -6 -6 -7 -7 -7 -7 -8 -8 -7 -8 -8 -7 -7 -7 -7 -7 -8 -7 -7 -6 -6 -6 -6 -6 -6 -6 -6 -6 -5 -5
-5 -5 -5 -5 -4 -4 -4 -3 -3 -3 -3 -4 -4 -5 -5 -6 -7 -8 -8 -9 -9 -9 -9 -9 -8 -8 -8 -8 -8 -7 -7 -7 -7 -8 -8 -7 -7 -6 -6 -6 -6 -6 -6 -6 -6 -5 -5
-5 -5 -5 -5 -4 -4 -4 -3 -3 -4 -4 -4 -5 -6 -6 -7 -8 -9 -10 -10 -11 -11 -10 -10 -10 -9 -9 -8 -8 -8 -7 -7 -7 -8 -8 -8 -7 -7 -7 -7 -8 -7 -7 -6 -6 -6 -5
-5 -5 -5 -4 -4 -4 -4 -4 -4 -4 -5 -6 -6 -7 -8 -9 -9 -10 -11 -11 -11 -11 -11 -11 -10 -10 -10 -9 -9 -8 -8 -8 -8 -8 -8 -8 -8 -7 -7 -7 -6 -7 -7 -6 -6 -5 -5
-5 -5 -5 -4 -5 -4 -4 -4 -4 -5 -6 -7 -7 -8 -9 -10 -11 -12 -12 -12 -12 -12 -12 -11 -11 -10 -10 -10 -9 -9 -9 -8 -8 -8 -8 -8 -8 -8 -7 -7 -8 -7 -7 -7 -6 -6 -6
-6 -5 -5 -5 -5 -5 -4 -4 -5 -6 -7 -8 -8 -9 -10 -11 -12 -12 -12 -12 -13 -13 -12 -12 -12 -11 -10 -10 -10 -10 -10 -9 -9 -8 -8 -9 -9 -8 -8 -7 -8 -8 -8 -8 -7 -7 -7
-6 -6 -5 -5 -5 -5 -5 -5 -6 -7 -7 -8 -9 -10 -11 -12 -12 -12 -13 -13 -13 -13 -13 -13 -12 -12 -11 -11 -10 -10 -10 -10 -10 -9 -9 -9 -8 -8 -8 -8 -8 -8 -8 -8 -8 -8 -7
-6 -6 -6 -6 -5 -5 -5 -6 -7 -7 -8 -9 -10 -11 -12 -12 -12 -12 -13 -13 -14 -14 -14 -14 -13 -13 -12 -11 -10 -10 -10 -10 -10 -10 -10 -9 -9 -9 -8 -8 -8 -8 -8 -8 -8 -8 -8
-7 -6 -6 -6 -5 -6 -6 -7 -7 -8 -9 -10 -11 -12 -12 -12 -12 -13 -13 -13 -14 -14 -14 -14 -13 -13 -13 -13 -12 -11 -11 -10 -10 -10 -10 -9 -9 -9 -9 -9 -8 -9 -8 -8 -8 -8 -8
-7 -7 -6 -6 -6 -6 -7 -7 -8 -8 -10 -11 -12 -12 -12 -13 -12 -13 -13 -13 -14 -14 -14 -14 -14 -13 -13 -13 -13 -12 -11 -11 -11 -11 -11 -10 -10 -10 -9 -9 -9 -9 -9 -9 -8 -8 -8
-7 -7 -7 -6 -6 -7 -7 -8 -8 -9 -10 -12 -12 -12 -12 -12 -12 -12 -13 -13 -14 -14 -14 -14 -14 -14 -14 -14 -13 -13 -12 -12 -11 -11 -12 -11 -10 -10 -9 -9 -9 -9 -9 -9 -9 -9 -10
-7 -7 -7 -6 -7 -7 -8 -8 -8 -9 -11 -12 -12 -12 -12 -12 -12 -12 -13 -14 -14 -14 -15 -15 -15 -15 -15 -15 -14 -14 -14 -13 -13 -12 -13 -12 -12 -10 -10 -10 -9 -9 -9 -10 -9 -9 -10
-8 -7 -7 -7 -7 -7 -8 -8 -9 -10 -11 -12 -13 -12 -12 -12 -12 -13 -13 -14 -14 -15 -15 -16 -16 -16 -16 -15 -15 -15 -14 -14 -13 -13 -12 -12 -12 -10 -10 -10 -10 -10 -9 -10 -10 -11 -10
-8 -7 -7 -7 -7 -8 -8 -9 -9 -10 -11 -12 -12 -12 -12 -12 -12 -13 -14 -15 -15 -15 -15 -15 -16 -16 -16 -16 -16 -15 -16 -14 -14 -13 -13 -14 -13 -12 -11 -11 -11 -10 -10 -10 -12 -11 -10
-8 -7 -7 -8 -8 -8 -9 -9 -10 -11 -11 -12 -12 -12 -12 -12 -12 -13 -14 -15 -15 -15 -15 -15 -15 -15 -15 -16 -16 -16 -15 -15 -15 -14 -14 -13 -14 -14 -12 -11 -11 -10 -10 -10 -10 -10 -10
-8 -8 -8 -8 -8 -8 -9 -10 -10 -11 -11 -12 -12 -12 -13 -12 -13 -13 -14 -15 -15 -15 -15 -15 -15 -15 -15 -15 -15 -15 -15 -15 -15 -15 -15 -14 -14 -15 -15 -13 -11 -11 -11 -10 -11 -12 -12
-8 -8 -8 -8 -9 -9 -10 -10 -11 -11 -12 -12 -13 -13 -13 -13 -13 -13 -14 -14 -15 -15 -15 -15 -15 -15 -15 -15 -15 -15 -15 -15 -15 -16 -16 -15 -16 -15 -14 -14 -14 -12 -11 -11 -10 -10 -11
-8 -8 -8 -9 -9 -9 -10 -11 -11 -12 -12 -13 -13 -13 -14 -13 -13 -13 -14 -14 -14 -15 -15 -15 -15 -15 -15 -15 -15 -15 -15 -15 -15 -16 -16 -16 -16 -15 -15 -14 -14 -14 -14 -11 -11 -10 -12
-9 -9 -9 -9 -9 -9 -10 -11 -11 -12 -12 -13 -13 -13 -14 -14 -13 -13 -14 -14 -14 -14 -15 -15 -14 -14 -15 -15 -15 -15 -15 -15 -15 -15 -16 -16 -16 -15 -15 -15 -14 -14 -13 -12 -11 -11 -11
-9 -9 -9 -9 -9 -9 -10 -11 -11 -12 -12 -13 -14 -14 -14 -14 -14 -14 -14 -14 -14 -14 -14 -15 -15 -15 -15 -15 -16 -16 -15 -16 -15 -15 -15 -15 -17 -16 -16 -16 -15 -14 -14 -13 -12 -11 -11
-9 -9 -9 -9 -9 -10 -10 -11 -11 -12 -12 -13 -14 -14 -14 -14 -14 -14 -14 -14 -15 -15 -15 -15 -15 -15 -15 -15 -15 -16 -16 -16 -16 -16 -16 -15 -16 -15 -17 -16 -15 -15 -15 -13 -13 -12 -12
-10 -10 -9 -9 -10 -10 -10 -11 -12 -12 -12 -13 -14 -14 -14 -14 -15 -14 -15 -15 -15 -15 -15 -15 -15 -15 -15 -15 -15 -16 -16 -17 -17 -16 -16 -16 -16 -17 -16 -16 -16 -15 -15 -14 -14 -14 -13
-10 -10 -9 -10 -10 -10 -11 -11 -12 -12 -12 -14 -14 -15 -14 -15 -15 -15 -15 -15 -15 -15 -15 -15 -15 -15 -15 -15 -15 -16 -17 -17 -17 -16 -16 -16 -16 -16 -16 -15 -16 -15 -14 -14 -14 -14 -14
-10 -10 -10 -10 -10 -10 -11 -12 -12 -13 -13 -14 -14 -14 -14 -15 -15 -15 -15 -15 -15 -15 -15 -15 -15 -15 -16 -16 -16 -16 -16 -16 -16 -17 -16 -17 -16 -16 -16 -16 -16 -15 -15 -15 -15 -15 -14
-10 -10 -10 -10 -10 -10 -11 -12 -13 -13 -13 -14 -14 -14 -15 -15 -15 -15 -15 -15 -15 -15 -15 -15 -15 -16 -16 -16 -16 -16 -16 -16 -16 -16 -17 -17 -17 -17 -16 -16 -16 -16 -15 -15 -15 -14 -14
-10 -11 -11 -10 -10 -11 -12 -12 -13 -13 -14 -14 -14 -14 -15 -15 -15 -15 -15 -15 -15 -15 -15 -16 -16 -16 -16 -16 -16 -16 -16 -17 -16 -16 -16 -17 -17 -17 -16 -16 -16 -16 -15 -15 -15 -15 -14

GFSGBSN_500_temp_105.txt.gz
Temp
-4 -4 -4 -4 -4 -4 -3 -3 -3 -3 -2 -2 -2 -2 -3 -3 -3 -3 -3 -3 -3 -3 -3 -4 -4 -5 -5 -6 -5 -6 -6 -5 -5 -6 -7 -7 -6 -5 -5 -5 -5 -5 -5 -5 -5 -5 -5
-4 -4 -4 -4 -4 -4 -3 -3 -3 -3 -2 -2 -2 -2 -3 -3 -3 -3 -4 -4 -4 -4 -4 -4 -5 -5 -6 -6 -6 -6 -6 -6 -6 -6 -7 -7 -6 -5 -5 -6 -6 -5 -5 -5 -6 -6 -5
-4 -4 -4 -4 -4 -4 -4 -3 -3 -3 -2 -3 -3 -3 -3 -3 -4 -4 -4 -4 -5 -5 -5 -5 -6 -6 -7 -5 -6 -6 -6 -6 -7 -7 -7 -7 -6 -6 -6 -6 -5 -5 -5 -6 -5 -5 -5
-5 -4 -4 -4 -4 -4 -4 -3 -3 -3 -3 -3 -3 -4 -4 -4 -5 -5 -5 -5 -6 -6 -7 -7 -7 -8 -7 -7 -7 -7 -7 -6 -7 -7 -7 -7 -6 -6 -6 -6 -5 -5 -5 -6 -5 -5 -6
-5 -5 -5 -5 -4 -4 -4 -4 -3 -3 -3 -4 -4 -5 -5 -5 -6 -6 -6 -7 -8 -8 -9 -9 -9 -9 -8 -8 -8 -7 -7 -7 -7 -8 -8 -7 -7 -7 -6 -6 -5 -4 -5 -5 -5 -5 -5
-5 -5 -5 -5 -4 -4 -4 -4 -4 -3 -4 -4 -5 -5 -6 -6 -7 -8 -8 -9 -10 -10 -10 -10 -10 -9 -9 -9 -9 -8 -8 -7 -7 -8 -8 -8 -7 -7 -7 -6 -6 -5 -5 -5 -5 -5 -5
-5 -5 -5 -5 -5 -4 -4 -4 -4 -4 -4 -5 -5 -6 -7 -8 -8 -9 -10 -11 -11 -11 -11 -11 -11 -10 -10 -9 -9 -9 -8 -8 -8 -8 -8 -8 -7 -7 -7 -7 -6 -6 -4 -5 -5 -5 -5
-5 -5 -5 -5 -5 -5 -5 -4 -4 -5 -5 -6 -6 -7 -8 -9 -10 -11 -11 -11 -12 -12 -12 -12 -11 -11 -10 -9 -9 -9 -9 -9 -8 -8 -8 -8 -8 -7 -8 -7 -7 -8 -7 -7 -6 -5 -5
-5 -5 -6 -5 -5 -5 -5 -5 -5 -5 -6 -6 -7 -7 -9 -10 -11 -11 -12 -12 -12 -12 -12 -12 -12 -11 -11 -10 -10 -10 -10 -9 -9 -9 -9 -9 -8 -8 -7 -7 -8 -9 -6 -6 -7 -6 -6
-5 -6 -6 -6 -6 -5 -5 -5 -5 -6 -6 -7 -8 -9 -10 -11 -11 -11 -12 -12 -13 -13 -13 -13 -13 -12 -12 -11 -10 -10 -10 -10 -10 -9 -9 -9 -10 -9 -8 -7 -8 -8 -7 -7 -7 -6 -7
-6 -6 -6 -6 -6 -5 -5 -5 -6 -6 -7 -7 -9 -10 -11 -11 -11 -12 -12 -13 -13 -14 -14 -13 -13 -13 -12 -12 -11 -11 -10 -10 -10 -10 -9 -10 -10 -8 -8 -8 -8 -9 -8 -7 -6 -8 -8
-6 -7 -7 -6 -6 -6 -6 -6 -6 -7 -7 -8 -10 -10 -11 -12 -12 -12 -13 -13 -13 -14 -14 -14 -14 -13 -13 -13 -12 -11 -11 -10 -10 -10 -10 -13 -10 -9 -9 -9 -8 -9 -8 -8 -9 -8 -8
-7 -7 -7 -6 -6 -6 -6 -6 -7 -7 -8 -9 -10 -11 -11 -11 -12 -12 -12 -13 -14 -14 -14 -14 -14 -13 -14 -15 -13 -12 -12 -11 -10 -10 -10 -11 -9 -9 -10 -9 -8 -9 -9 -9 -8 -8 -9
-7 -7 -7 -6 -6 -6 -6 -7 -7 -8 -9 -10 -10 -11 -11 -11 -11 -12 -12 -13 -15 -14 -16 -14 -14 -14 -15 -14 -15 -14 -13 -12 -12 -12 -12 -12 -11 -10 -10 -11 -10 -9 -9 -10 -9 -8 -7
-7 -7 -7 -6 -7 -7 -7 -7 -8 -8 -9 -10 -11 -11 -11 -11 -11 -12 -13 -15 -15 -16 -14 -16 -15 -15 -15 -15 -15 -15 -15 -14 -14 -12 -12 -12 -12 -12 -10 -10 -11 -10 -10 -10 -10 -8 -8
-7 -7 -7 -7 -7 -7 -7 -8 -8 -9 -10 -10 -11 -11 -11 -11 -11 -11 -13 -15 -14 -14 -14 -15 -14 -14 -15 -15 -15 -14 -14 -14 -14 -14 -13 -12 -12 -12 -11 -10 -10 -11 -11 -11 -10 -10 -9
-8 -7 -7 -7 -7 -8 -8 -8 -9 -9 -10 -11 -11 -12 -12 -12 -12 -12 -16 -14 -14 -14 -14 -16 -16 -15 -15 -15 -14 -14 -13 -14 -14 -14 -13 -13 -13 -12 -12 -10 -11 -10 -10 -10 -10 -10 -9
-8 -8 -7 -7 -7 -8 -8 -9 -9 -10 -10 -11 -12 -12 -12 -12 -12 -15 -15 -14 -14 -14 -14 -15 -15 -16 -16 -15 -16 -15 -15 -15 -14 -14 -13 -13 -13 -13 -13 -13 -10 -12 -11 -11 -11 -10 -10
-8 -8 -7 -7 -8 -8 -9 -9 -9 -10 -11 -11 -12 -12 -12 -12 -15 -14 -13 -14 -14 -14 -14 -14 -15 -15 -15 -16 -15 -15 -16 -14 -15 -14 -15 -15 -14 -13 -12 -13 -12 -12 -12 -12 -11 -11 -10
-8 -8 -8 -8 -8 -9 -9 -9 -9 -10 -11 -11 -12 -13 -13 -13 -13 -13 -13 -13 -14 -14 -14 -14 -14 -15 -15 -16 -15 -15 -15 -15 -15 -15 -14 -14 -14 -13 -12 -12 -11 -13 -11 -12 -12 -11 -10
-8 -9 -8 -9 -9 -9 -9 -9 -10 -10 -11 -11 -12 -12 -13 -14 -13 -13 -13 -13 -14 -14 -14 -14 -14 -14 -15 -16 -16 -16 -15 -16 -15 -15 -15 -14 -15 -14 -12 -13 -12 -12 -12 -13 -11 -11 -11
-9 -9 -8 -9 -9 -9 -9 -9 -10 -11 -11 -12 -12 -13 -13 -13 -13 -13 -14 -14 -14 -14 -14 -14 -14 -14 -14 -15 -16 -15 -15 -16 -16 -16 -15 -16 -15 -14 -14 -13 -13 -13 -12 -12 -12 -13 -13
-9 -9 -9 -9 -9 -9 -9 -9 -10 -11 -11 -12 -12 -13 -13 -14 -14 -14 -14 -14 -14 -14 -14 -14 -14 -14 -15 -14 -15 -15 -15 -15 -15 -15 -15 -16 -15 -15 -14 -14 -14 -14 -14 -13 -13 -13 -13
-9 -9 -10 -9 -9 -9 -10 -10 -10 -11 -12 -12 -13 -14 -14 -14 -14 -14 -14 -14 -14 -14 -14 -14 -14 -14 -14 -15 -15 -15 -16 -16 -15 -15 -15 -16 -16 -16 -15 -14 -14 -14 -14 -14 -13 -13 -13
-9 -9 -10 -9 -9 -9 -10 -10 -10 -11 -12 -12 -13 -14 -14 -15 -14 -14 -14 -15 -15 -14 -15 -15 -15 -15 -15 -15 -15 -15 -15 -15 -16 -16 -16 -16 -15 -15 -16 -15 -14 -13 -14 -14 -14 -14 -13
-9 -10 -10 -10 -10 -10 -10 -10 -10 -12 -12 -12 -13 -14 -14 -15 -15 -15 -15 -15 -15 -15 -15 -15 -15 -15 -15 -15 -16 -15 -15 -16 -15 -15 -16 -17 -15 -15 -15 -15 -15 -14 -13 -13 -14 -15 -12
-9 -9 -10 -10 -10 -10 -10 -11 -11 -12 -12 -13 -13 -14 -15 -15 -15 -15 -15 -15 -15 -15 -15 -15 -15 -15 -15 -15 -17 -17 -16 -16 -14 -16 -16 -16 -16 -16 -16 -15 -15 -14 -14 -13 -14 -15 -14
-10 -10 -10 -10 -10 -10 -10 -11 -11 -12 -13 -13 -13 -14 -14 -15 -15 -15 -15 -15 -15 -15 -15 -15 -15 -15 -15 -16 -17 -17 -15 -16 -15 -15 -16 -15 -15 -16 -16 -14 -14 -15 -14 -15 -15 -15 -14
-10 -10 -10 -10 -10 -10 -11 -11 -11 -12 -13 -13 -13 -14 -14 -15 -15 -15 -15 -14 -15 -15 -15 -15 -16 -16 -16 -16 -16 -16 -16 -16 -15 -16 -15 -16 -15 -15 -15 -15 -15 -15 -15 -15 -15 -15 -14

GFSGBSN_500_temp_108.txt.gz
Temp
-4 -4 -4 -4 -4 -4 -3 -3 -3 -3 -3 -2 -2 -2 -2 -3 -2 -3 -3 -3 -3 -3 -3 -3 -3 -4 -4 -4 -4 -5 -5 -5 -5 -5 -5 -6 -6 -6 -5 -5 -5 -6 -5 -5 -5 -5 -4
-4 -4 -4 -4 -4 -4 -3 -3 -3 -3 -3 -3 -3 -2 -3 -2 -2 -3 -3 -3 -3 -4 -4 -4 -4 -4 -4 -4 -4 -5 -5 -5 -5 -5 -5 -6 -6 -6 -5 -5 -5 -5 -6 -5 -5 -5 -6
-4 -4 -4 -4 -4 -4 -4 -3 -3 -3 -3 -3 -3 -3 -3 -3 -3 -3 -3 -4 -4 -4 -4 -5 -5 -5 -5 -4 -5 -6 -6 -5 -6 -6 -6 -7 -6 -6 -6 -6 -5 -5 -5 -5 -5 -5 -5
-4 -4 -4 -4 -4 -4 -4 -4 -4 -3 -3 -3 -3 -3 -3 -3 -3 -3 -4 -5 -5 -6 -6 -7 -7 -7 -7 -6 -7 -7 -7 -6 -6 -6 -7 -7 -7 -6 -6 -6 -5 -5 -5 -5 -5 -5 -5
-4 -4 -4 -5 -5 -5 -4 -4 -4 -4 -3 -3 -3 -4 -4 -4 -4 -5 -6 -6 -7 -8 -9 -9 -9 -9 -8 -8 -8 -8 -8 -7 -7 -7 -7 -7 -7 -7 -6 -6 -5 -5 -5 -6 -6 -5 -5
-4 -4 -4 -5 -5 -5 -5 -4 -4 -4 -4 -4 -4 -4 -4 -5 -5 -6 -8 -9 -9 -10 -10 -10 -10 -10 -9 -9 -9 -9 -8 -8 -8 -7 -7 -8 -7 -7 -7 -6 -6 -7 -6 -5 -5 -5 -5
-4 -4 -4 -4 -5 -5 -5 -4 -4 -4 -4 -4 -4 -5 -5 -5 -7 -8 -9 -10 -10 -11 -11 -11 -11 -11 -10 -9 -9 -9 -9 -8 -8 -8 -8 -8 -7 -7 -7 -7 -7 -7 -6 -5 -5 -5 -5
-4 -4 -4 -5 -5 -5 -5 -5 -4 -4 -4 -4 -5 -5 -5 -7 -8 -9 -10 -10 -11 -11 -11 -12 -12 -11 -11 -10 -10 -9 -9 -9 -9 -8 -9 -8 -8 -7 -8 -7 -6 -7 -6 -6 -6 -6 -6
-5 -5 -5 -5 -6 -5 -5 -5 -5 -5 -5 -5 -5 -6 -7 -9 -9 -10 -10 -11 -12 -12 -12 -12 -12 -12 -11 -11 -10 -10 -9 -9 -9 -9 -9 -9 -8 -8 -8 -8 -6 -6 -7 -7 -6 -6 -6
-5 -5 -5 -6 -6 -5 -5 -5 -5 -5 -6 -6 -6 -7 -9 -9 -9 -10 -11 -12 -12 -13 -13 -13 -13 -12 -12 -12 -11 -10 -10 -10 -9 -9 -9 -9 -9 -10 -9 -9 -9 -7 -6 -7 -7 -7 -6
-5 -5 -6 -6 -5 -5 -5 -5 -5 -6 -6 -6 -7 -8 -9 -9 -10 -10 -11 -12 -13 -13 -13 -14 -13 -13 -13 -12 -13 -11 -10 -9 -10 -10 -10 -10 -9 -11 -10 -9 -9 -8 -7 -7 -6 -7 -7
-5 -6 -6 -6 -6 -5 -5 -6 -6 -6 -6 -7 -8 -9 -9 -9 -10 -11 -12 -12 -13 -13 -13 -14 -13 -13 -13 -13 -14 -12 -11 -10 -10 -10 -10 -10 -11 -11 -9 -10 -10 -9 -9 -8 -7 -7 -7
-6 -6 -6 -6 -6 -6 -6 -6 -6 -7 -7 -8 -9 -9 -9 -10 -10 -11 -11 -12 -13 -13 -13 -14 -14 -14 -14 -14 -14 -12 -11 -11 -10 -10 -10 -10 -11 -12 -10 -10 -10 -9 -9 -9 -8 -8 -8
-6 -6 -6 -6 -6 -6 -6 -7 -7 -7 -8 -9 -9 -9 -10 -10 -11 -11 -12 -13 -13 -14 -14 -13 -14 -14 -14 -14 -14 -13 -12 -12 -11 -11 -12 -11 -11 -9 -9 -9 -11 -10 -10 -9 -8 -8 -7
-6 -6 -6 -6 -6 -6 -7 -7 -7 -7 -8 -9 -9 -10 -10 -11 -11 -11 -12 -13 -14 -15 -14 -15 -14 -14 -14 -14 -14 -14 -14 -13 -13 -12 -12 -12 -12 -12 -11 -10 -11 -10 -10 -9 -8 -8 -7
-7 -7 -7 -7 -7 -6 -7 -7 -8 -8 -9 -9 -10 -10 -10 -11 -11 -11 -12 -14 -14 -14 -14 -15 -14 -14 -14 -14 -14 -14 -14 -13 -13 -13 -13 -12 -11 -12 -12 -10 -10 -10 -10 -10 -10 -9 -8
-7 -7 -7 -7 -7 -7 -7 -8 -8 -8 -9 -10 -10 -10 -11 -11 -12 -12 -12 -14 -13 -14 -13 -15 -14 -14 -14 -14 -14 -14 -13 -13 -13 -12 -12 -12 -11 -12 -12 -11 -10 -10 -9 -10 -10 -9 -9
-7 -8 -8 -8 -7 -7 -8 -8 -8 -9 -9 -10 -10 -11 -12 -12 -12 -15 -14 -13 -14 -14 -14 -14 -14 -14 -15 -14 -14 -14 -14 -13 -13 -13 -13 -12 -11 -11 -12 -12 -11 -11 -11 -11 -10 -9 -9
-8 -8 -8 -8 -8 -8 -8 -8 -8 -9 -10 -10 -11 -11 -12 -12 -12 -14 -13 -13 -13 -15 -14 -15 -15 -14 -14 -14 -14 -14 -14 -13 -13 -13 -13 -12 -12 -13 -12 -11 -12 -11 -12 -11 -11 -10 -10
-8 -8 -8 -8 -8 -8 -8 -8 -9 -9 -10 -11 -11 -12 -13 -13 -12 -14 -14 -15 -14 -13 -13 -14 -14 -14 -14 -15 -15 -14 -14 -15 -13 -13 -13 -12 -12 -13 -12 -11 -11 -12 -12 -12 -11 -11 -10
-8 -8 -8 -9 -9 -8 -9 -9 -9 -9 -10 -11 -11 -12 -13 -14 -13 -13 -13 -13 -14 -15 -13 -14 -14 -14 -14 -14 -15 -15 -15 -15 -14 -14 -13 -13 -13 -13 -11 -12 -11 -12 -11 -12 -12 -11 -10
-9 -9 -9 -9 -9 -9 -9 -9 -9 -10 -10 -11 -12 -11 -13 -13 -13 -13 -14 -13 -13 -13 -13 -13 -14 -14 -14 -14 -15 -14 -15 -15 -15 -14 -14 -14 -14 -13 -12 -12 -12 -12 -12 -11 -12 -12 -10
-9 -9 -9 -9 -9 -9 -9 -9 -9 -10 -10 -11 -12 -12 -13 -13 -14 -14 -15 -14 -14 -13 -13 -13 -13 -14 -14 -14 -14 -14 -14 -14 -16 -14 -14 -14 -14 -14 -13 -13 -13 -12 -12 -12 -12 -12 -12
-9 -9 -9 -9 -9 -10 -9 -9 -9 -10 -10 -11 -12 -12 -13 -15 -14 -14 -14 -14 -14 -14 -14 -14 -14 -14 -14 -14 -14 -14 -14 -15 -16 -15 -14 -14 -15 -15 -14 -14 -13 -13 -12 -12 -12 -12 -12
-9 -9 -9 -9 -9 -10 -10 -10 -10 -10 -11 -11 -11 -13 -13 -14 -16 -14 -14 -14 -14 -14 -14 -14 -14 -14 -14 -14 -14 -14 -15 -16 -16 -16 -16 -15 -15 -15 -14 -14 -13 -13 -12 -13 -11 -12 -11
-10 -9 -9 -9 -9 -10 -10 -10 -10 -10 -11 -11 -12 -13 -14 -15 -16 -14 -14 -14 -15 -16 -15 -14 -14 -14 -14 -14 -14 -15 -15 -15 -15 -15 -15 -15 -15 -14 -14 -14 -14 -13 -13 -13 -12 -12 -11
-9 -10 -10 -10 -10 -10 -10 -10 -11 -11 -11 -12 -12 -13 -14 -14 -15 -14 -14 -15 -14 -15 -15 -15 -14 -14 -14 -14 -15 -15 -14 -15 -15 -16 -16 -15 -14 -14 -15 -14 -14 -13 -13 -13 -14 -14 -12
-9 -10 -10 -10 -10 -10 -11 -11 -11 -11 -12 -12 -13 -13 -14 -14 -14 -15 -14 -14 -14 -15 -15 -14 -15 -15 -15 -15 -15 -16 -16 -14 -15 -15 -15 -16 -15 -15 -14 -15 -14 -13 -13 -12 -13 -14 -13
-10 -10 -10 -11 -11 -11 -11 -11 -11 -12 -12 -12 -13 -13 -14 -14 -14 -15 -14 -14 -14 -15 -15 -15 -15 -16 -15 -16 -15 -15 -15 -15 -15 -16 -17 -15 -15 -15 -14 -14 -14 -14 -14 -15 -15 -15 -13

GFSGBSN_500_temp_111.txt.gz
Temp
-4 -4 -4 -4 -4 -4 -4 -4 -3 -3 -3 -3 -2 -2 -2 -2 -2 -2 -2 -2 -3 -3 -3 -3 -3 -3 -3 -3 -3 -5 -5 -4 -4 -4 -4 -4 -5 -6 -5 -6 -5 -5 -5 -5 -5 -5 -5
-4 -4 -4 -4 -4 -4 -4 -4 -4 -3 -3 -3 -3 -3 -2 -2 -2 -2 -3 -3 -3 -3 -3 -3 -4 -4 -4 -3 -4 -5 -5 -5 -5 -5 -5 -5 -5 -6 -6 -5 -5 -5 -5 -5 -5 -5 -6
-4 -4 -4 -4 -4 -4 -4 -4 -4 -4 -4 -3 -3 -3 -2 -2 -3 -3 -3 -3 -3 -4 -4 -4 -4 -5 -5 -4 -5 -6 -6 -6 -5 -5 -5 -6 -5 -6 -6 -6 -5 -6 -5 -5 -5 -5 -5
-3 -3 -3 -3 -3 -4 -4 -4 -4 -4 -3 -3 -3 -3 -3 -3 -3 -3 -3 -4 -4 -5 -5 -6 -7 -7 -7 -7 -6 -7 -7 -7 -6 -6 -6 -6 -6 -7 -6 -6 -6 -6 -6 -5 -6 -6 -6
-3 -3 -3 -3 -3 -4 -4 -4 -4 -4 -3 -3 -3 -3 -3 -3 -3 -4 -4 -5 -6 -7 -8 -8 -8 -8 -9 -9 -8 -8 -8 -8 -7 -7 -7 -7 -7 -8 -7 -7 -6 -6 -6 -6 -6 -6 -6
-3 -3 -3 -3 -3 -4 -4 -5 -5 -4 -4 -3 -3 -3 -3 -4 -4 -4 -5 -7 -8 -9 -9 -9 -10 -10 -10 -9 -9 -9 -9 -8 -8 -8 -8 -8 -7 -8 -7 -7 -6 -7 -6 -6 -5 -6 -5
-3 -3 -3 -4 -4 -4 -5 -5 -4 -4 -4 -4 -4 -4 -4 -4 -5 -6 -8 -8 -9 -9 -9 -10 -10 -10 -10 -10 -10 -9 -9 -9 -8 -8 -9 -9 -8 -8 -8 -7 -7 -7 -6 -6 -6 -5 -6
-4 -4 -4 -4 -5 -5 -5 -4 -4 -4 -4 -4 -4 -4 -5 -6 -7 -8 -8 -8 -9 -10 -10 -11 -11 -11 -11 -11 -10 -10 -9 -9 -9 -9 -9 -9 -8 -8 -9 -8 -7 -7 -7 -6 -7 -5 -5
-4 -4 -4 -4 -5 -5 -5 -4 -5 -4 -4 -5 -5 -5 -6 -7 -8 -8 -8 -9 -10 -10 -11 -12 -11 -12 -12 -11 -11 -10 -10 -9 -9 -9 -9 -9 -9 -9 -10 -8 -7 -7 -7 -7 -6 -7 -6
-4 -4 -5 -5 -5 -5 -5 -5 -5 -5 -5 -5 -5 -6 -7 -8 -8 -9 -9 -10 -11 -11 -12 -12 -12 -12 -12 -12 -11 -11 -11 -10 -9 -9 -10 -10 -10 -9 -10 -10 -8 -9 -8 -7 -7 -6 -6
-4 -4 -5 -5 -6 -5 -5 -5 -5 -5 -6 -6 -6 -7 -8 -8 -9 -10 -10 -10 -11 -12 -13 -13 -13 -13 -13 -12 -12 -12 -11 -10 -9 -10 -10 -10 -10 -9 -11 -10 -10 -9 -8 -8 -7 -7 -7
-4 -4 -5 -5 -6 -6 -5 -6 -6 -6 -6 -6 -7 -8 -8 -8 -9 -10 -10 -11 -12 -12 -13 -13 -13 -13 -13 -13 -13 -12 -12 -11 -10 -10 -10 -10 -10 -11 -11 -11 -11 -9 -8 -8 -8 -7 -7
-5 -5 -5 -6 -6 -6 -6 -6 -6 -6 -7 -7 -8 -8 -9 -9 -9 -10 -10 -11 -13 -13 -13 -14 -14 -14 -13 -14 -14 -13 -12 -11 -11 -10 -9 -10 -10 -11 -11 -12 -10 -9 -8 -9 -8 -8 -8
-6 -6 -6 -6 -6 -6 -6 -6 -7 -7 -7 -8 -8 -9 -9 -9 -10 -10 -11 -12 -12 -13 -14 -14 -14 -15 -14 -14 -14 -14 -12 -12 -12 -11 -11 -12 -10 -10 -9 -11 -10 -9 -9 -9 -9 -8 -8
-7 -7 -7 -7 -7 -7 -7 -7 -7 -7 -7 -8 -9 -9 -9 -10 -10 -10 -11 -12 -14 -14 -14 -14 -14 -14 -14 -14 -14 -14 -13 -13 -12 -12 -13 -13 -12 -12 -11 -10 -10 -9 -9 -9 -9 -8 -9
-7 -7 -7 -7 -7 -7 -7 -7 -7 -8 -8 -8 -9 -9 -10 -10 -10 -11 -11 -11 -12 -13 -14 -14 -14 -14 -14 -14 -15 -14 -13 -13 -13 -13 -11 -12 -12 -11 -11 -11 -11 -11 -10 -9 -9 -8 -8
-7 -7 -7 -7 -8 -8 -7 -7 -8 -8 -8 -9 -9 -10 -10 -10 -12 -12 -12 -12 -13 -13 -14 -14 -14 -14 -13 -14 -14 -13 -14 -13 -12 -13 -12 -12 -12 -12 -12 -11 -11 -11 -9 -9 -9 -9 -9
-8 -8 -8 -8 -8 -8 -8 -8 -8 -8 -9 -9 -10 -10 -11 -11 -12 -11 -12 -14 -13 -13 -14 -14 -14 -14 -14 -14 -14 -14 -13 -13 -12 -12 -12 -12 -11 -11 -12 -12 -11 -11 -10 -10 -9 -9 -10
-8 -8 -8 -8 -8 -8 -8 -8 -9 -9 -9 -10 -10 -11 -10 -12 -13 -13 -13 -13 -13 -13 -13 -13 -13 -13 -13 -14 -14 -14 -14 -13 -13 -13 -13 -11 -11 -12 -12 -12 -12 -12 -11 -10 -10 -10 -9
-8 -8 -8 -8 -8 -8 -9 -9 -9 -9 -9 -10 -11 -11 -11 -12 -14 -13 -13 -13 -12 -13 -12 -13 -13 -13 -13 -14 -14 -14 -14 -14 -13 -13 -13 -13 -12 -12 -12 -11 -11 -11 -12 -12 -11 -10 -9
-8 -8 -8 -9 -9 -9 -9 -9 -9 -9 -9 -10 -11 -11 -11 -13 -12 -13 -13 -13 -14 -13 -13 -13 -13 -13 -13 -13 -14 -14 -15 -14 -13 -14 -13 -13 -13 -13 -12 -11 -11 -11 -12 -12 -12 -10 -10
-8 -8 -9 -9 -9 -9 -9 -9 -9 -9 -10 -10 -11 -11 -12 -11 -13 -13 -14 -13 -14 -13 -13 -12 -13 -13 -14 -14 -13 -13 -14 -14 -14 -13 -14 -13 -13 -13 -14 -12 -11 -12 -12 -11 -11 -11 -10
-9 -9 -9 -9 -9 -9 -9 -9 -10 -10 -10 -10 -11 -12 -13 -12 -14 -14 -14 -13 -13 -13 -13 -13 -13 -13 -14 -13 -14 -14 -14 -14 -15 -14 -14 -14 -13 -14 -13 -13 -12 -12 -11 -11 -12 -12 -11
-9 -9 -9 -9 -9 -9 -9 -10 -10 -10 -10 -10 -11 -12 -12 -13 -13 -14 -14 -14 -14 -14 -14 -14 -14 -14 -14 -14 -14 -14 -14 -14 -14 -14 -14 -15 -15 -14 -14 -13 -12 -12 -12 -11 -12 -12 -11
-9 -9 -9 -10 -10 -9 -9 -10 -10 -10 -10 -10 -11 -12 -13 -15 -14 -13 -14 -14 -14 -14 -14 -14 -14 -14 -14 -14 -14 -14 -14 -14 -14 -14 -14 -14 -14 -14 -14 -13 -14 -13 -13 -12 -11 -12 -11
-10 -10 -9 -9 -10 -10 -10 -10 -10 -10 -10 -11 -11 -12 -13 -14 -14 -13 -14 -14 -14 -14 -14 -14 -14 -14 -14 -14 -14 -14 -15 -15 -15 -15 -14 -14 -14 -14 -15 -14 -14 -14 -13 -13 -13 -12 -12
-10 -10 -10 -10 -10 -10 -10 -10 -10 -11 -11 -11 -12 -12 -13 -13 -13 -13 -14 -14 -14 -15 -15 -14 -14 -14 -14 -15 -14 -15 -15 -15 -15 -15 -15 -15 -14 -14 -14 -14 -14 -13 -13 -13 -13 -13 -12
-10 -10 -10 -10 -10 -10 -10 -11 -11 -11 -11 -12 -12 -12 -12 -13 -14 -14 -14 -14 -14 -15 -15 -14 -15 -14 -15 -15 -15 -15 -15 -15 -15 -15 -15 -15 -16 -15 -15 -14 -14 -14 -13 -13 -13 -13 -12
-11 -11 -11 -11 -11 -11 -11 -11 -11 -11 -12 -12 -12 -13 -13 -14 -14 -14 -14 -14 -14 -14 -14 -14 -15 -15 -15 -15 -15 -16 -16 -16 -16 -16 -15 -15 -15 -15 -15 -14 -15 -15 -14 -14 -14 -13 -14

GFSGBSN_500_temp_114.txt.gz
Temp
-4 -4 -4 -4 -4 -4 -4 -4 -4 -4 -4 -4 -4 -3 -3 -3 -2 -2 -2 -3 -2 -2 -2 -2 -3 -3 -3 -3 -4 -4 -5 -5 -5 -5 -5 -5 -6 -6 -6 -6 -6 -5 -5 -5 -5 -5 -5
-3 -3 -3 -3 -3 -3 -3 -4 -4 -4 -4 -4 -3 -3 -3 -3 -3 -2 -2 -2 -2 -2 -2 -3 -3 -3 -3 -3 -4 -5 -5 -5 -5 -5 -5 -6 -6 -7 -7 -6 -6 -5 -5 -5 -5 -5 -5
-3 -3 -3 -3 -3 -3 -3 -4 -4 -4 -4 -4 -3 -3 -3 -3 -2 -2 -3 -2 -3 -3 -3 -4 -4 -4 -4 -4 -5 -6 -5 -6 -6 -6 -6 -6 -6 -7 -5 -4 -5 -5 -5 -5 -5 -5 -5
-3 -3 -3 -3 -3 -3 -4 -4 -4 -5 -4 -4 -3 -3 -3 -3 -2 -3 -3 -3 -3 -4 -4 -5 -5 -6 -6 -6 -6 -7 -7 -7 -7 -7 -7 -6 -6 -7 -6 -6 -6 -6 -6 -5 -5 -5 -5
-3 -3 -3 -3 -3 -4 -4 -5 -5 -4 -4 -4 -3 -3 -3 -3 -3 -3 -3 -4 -5 -5 -6 -7 -7 -8 -7 -7 -7 -8 -8 -8 -8 -8 -8 -7 -7 -8 -7 -7 -6 -5 -6 -5 -5 -6 -6
-3 -3 -4 -4 -4 -4 -5 -5 -5 -4 -4 -4 -3 -3 -3 -3 -4 -4 -4 -6 -6 -8 -8 -8 -8 -8 -9 -9 -9 -8 -9 -9 -8 -9 -9 -8 -8 -8 -8 -7 -8 -7 -6 -6 -5 -6 -6
-4 -4 -4 -4 -4 -4 -5 -5 -4 -4 -4 -4 -4 -4 -4 -4 -4 -5 -6 -7 -8 -8 -8 -9 -9 -9 -9 -9 -10 -10 -10 -9 -9 -9 -9 -9 -9 -9 -9 -8 -7 -7 -6 -6 -6 -6 -5
-4 -4 -4 -3 -4 -4 -5 -5 -4 -4 -4 -4 -4 -4 -5 -5 -6 -7 -7 -8 -8 -9 -9 -10 -10 -10 -10 -10 -10 -10 -10 -10 -9 -9 -9 -10 -10 -10 -9 -8 -8 -7 -7 -6 -6 -6 -6
-4 -4 -4 -4 -4 -4 -5 -5 -5 -5 -5 -4 -5 -5 -6 -6 -7 -7 -8 -8 -9 -9 -10 -10 -11 -11 -11 -11 -11 -11 -10 -10 -10 -9 -10 -10 -10 -10 -9 -9 -8 -7 -7 -7 -6 -6 -6
-4 -4 -4 -4 -4 -5 -5 -5 -5 -5 -5 -5 -5 -6 -6 -7 -8 -8 -8 -9 -9 -10 -11 -11 -11 -11 -12 -11 -11 -11 -11 -11 -11 -10 -10 -10 -10 -10 -10 -9 -8 -8 -7 -7 -7 -7 -6
-5 -5 -5 -5 -5 -5 -6 -6 -5 -5 -5 -6 -6 -7 -7 -8 -8 -8 -9 -10 -10 -10 -11 -12 -11 -13 -13 -13 -12 -12 -11 -11 -11 -10 -10 -11 -11 -11 -11 -9 -9 -9 -8 -8 -7 -8 -7
-5 -5 -5 -6 -6 -6 -6 -6 -6 -6 -6 -6 -7 -8 -8 -8 -8 -9 -10 -10 -10 -11 -12 -13 -13 -14 -13 -13 -13 -13 -12 -12 -12 -11 -10 -10 -11 -11 -11 -11 -10 -11 -9 -9 -8 -8 -7
-5 -6 -6 -6 -6 -6 -6 -6 -6 -6 -6 -7 -7 -8 -9 -9 -9 -9 -10 -10 -12 -12 -13 -13 -14 -14 -14 -14 -13 -13 -12 -12 -12 -11 -11 -11 -11 -12 -11 -11 -11 -10 -10 -10 -8 -8 -8
-6 -6 -6 -7 -6 -7 -7 -7 -7 -7 -7 -7 -8 -9 -9 -9 -9 -9 -10 -11 -11 -12 -12 -14 -15 -14 -14 -14 -14 -14 -14 -13 -13 -13 -12 -12 -12 -12 -11 -11 -10 -10 -9 -9 -8 -8 -8
-6 -7 -7 -7 -7 -7 -7 -7 -7 -7 -7 -8 -8 -9 -9 -9 -10 -9 -10 -11 -11 -12 -13 -14 -15 -14 -14 -14 -14 -14 -14 -14 -14 -13 -13 -12 -12 -12 -12 -10 -10 -10 -10 -10 -10 -9 -8
-7 -7 -7 -7 -7 -7 -8 -8 -8 -7 -8 -8 -9 -9 -10 -10 -10 -10 -10 -11 -11 -12 -13 -13 -14 -14 -14 -14 -14 -14 -13 -14 -13 -12 -12 -12 -12 -12 -12 -12 -11 -10 -10 -10 -9 -9 -8
-7 -7 -7 -8 -8 -8 -8 -8 -8 -8 -8 -9 -9 -10 -10 -10 -10 -10 -11 -10 -11 -12 -13 -14 -14 -14 -13 -14 -14 -14 -13 -14 -14 -14 -12 -12 -11 -12 -12 -11 -11 -11 -10 -10 -10 -9 -8
-8 -8 -8 -8 -8 -8 -8 -8 -8 -8 -8 -9 -9 -10 -11 -11 -11 -11 -11 -11 -12 -13 -13 -13 -13 -13 -14 -14 -14 -14 -13 -14 -13 -13 -13 -12 -12 -12 -12 -11 -12 -12 -11 -11 -10 -10 -9
-8 -8 -8 -8 -8 -8 -8 -9 -9 -9 -8 -9 -9 -10 -10 -11 -10 -10 -11 -12 -12 -12 -13 -13 -13 -13 -13 -14 -14 -14 -13 -14 -14 -13 -13 -12 -12 -12 -12 -12 -12 -12 -11 -11 -10 -10 -10
-8 -8 -8 -8 -8 -8 -9 -9 -9 -9 -9 -9 -9 -10 -11 -11 -11 -11 -12 -12 -12 -12 -13 -12 -12 -12 -13 -13 -14 -13 -14 -13 -14 -14 -13 -13 -12 -12 -12 -12 -12 -12 -12 -11 -11 -10 -10
-8 -8 -8 -9 -9 -9 -9 -9 -9 -9 -9 -9 -10 -10 -11 -12 -12 -12 -13 -13 -12 -12 -12 -13 -13 -13 -13 -13 -14 -14 -14 -13 -13 -13 -14 -14 -13 -12 -12 -12 -12 -12 -12 -12 -12 -10 -9
-8 -8 -9 -9 -9 -9 -9 -9 -9 -9 -10 -9 -10 -10 -11 -12 -12 -12 -12 -13 -13 -13 -13 -13 -13 -13 -13 -12 -13 -14 -14 -14 -14 -13 -14 -14 -14 -13 -13 -12 -12 -12 -12 -12 -12 -11 -10
-9 -8 -9 -9 -9 -9 -10 -9 -9 -9 -10 -10 -10 -10 -11 -12 -13 -13 -13 -12 -13 -14 -13 -13 -13 -13 -13 -13 -13 -13 -15 -14 -14 -14 -14 -14 -14 -14 -14 -13 -13 -12 -12 -12 -12 -11 -10
-9 -9 -9 -9 -9 -9 -10 -10 -9 -9 -10 -10 -10 -10 -11 -12 -13 -13 -13 -13 -13 -13 -13 -13 -14 -14 -14 -13 -14 -14 -14 -14 -14 -14 -14 -14 -14 -14 -14 -14 -13 -13 -12 -12 -12 -11 -11
-9 -10 -10 -9 -10 -10 -9 -10 -10 -10 -10 -10 -11 -11 -11 -12 -12 -13 -14 -13 -13 -14 -13 -14 -14 -14 -14 -14 -14 -14 -14 -14 -14 -14 -14 -15 -14 -14 -15 -15 -14 -13 -13 -12 -12 -12 -11
-10 -10 -10 -9 -10 -10 -10 -10 -10 -10 -10 -10 -11 -11 -11 -12 -12 -13 -13 -14 -14 -14 -14 -14 -14 -14 -14 -14 -14 -14 -14 -14 -15 -15 -15 -15 -15 -15 -15 -15 -14 -14 -14 -13 -12 -12 -12
-10 -10 -10 -10 -10 -10 -10 -10 -10 -10 -11 -11 -11 -11 -11 -12 -12 -12 -13 -14 -14 -15 -14 -14 -14 -14 -15 -15 -15 -15 -14 -15 -15 -15 -15 -15 -15 -15 -15 -15 -15 -14 -13 -13 -13 -12 -12
-11 -11 -11 -11 -11 -11 -11 -11 -11 -11 -11 -11 -11 -12 -12 -12 -13 -13 -13 -14 -15 -15 -15 -14 -14 -14 -14 -15 -15 -15 -15 -15 -15 -16 -15 -15 -15 -14 -14 -15 -15 -15 -15 -15 -14 -13 -13
-12 -12 -12 -12 -11 -11 -11 -11 -11 -11 -11 -12 -12 -12 -12 -13 -14 -14 -14 -15 -15 -15 -14 -14 -15 -15 -15 -15 -16 -16 -16 -15 -15 -15 -15 -15 -15 -15 -15 -15 -15 -15 -15 -15 -14 -14 -13

GFSGBSN_500_temp_117.txt.gz
Temp
-3 -3 -3 -3 -3 -3 -3 -3 -4 -4 -4 -4 -4 -4 -3 -3 -3 -3 -2 -2 -2 -3 -3 -3 -3 -3 -3 -3 -3 -4 -4 -5 -5 -5 -5 -5 -6 -6 -6 -5 -6 -6 -6 -6 -6 -5 -5
-3 -3 -3 -3 -3 -3 -3 -3 -4 -4 -4 -4 -4 -4 -3 -3 -3 -2 -2 -3 -3 -3 -3 -3 -3 -3 -3 -3 -4 -4 -5 -5 -5 -5 -6 -6 -5 -6 -6 -5 -5 -6 -6 -6 -6 -6 -5
-3 -3 -3 -3 -3 -3 -3 -3 -4 -4 -5 -5 -4 -4 -3 -3 -3 -3 -3 -3 -3 -3 -3 -4 -4 -4 -4 -5 -6 -6 -6 -6 -6 -6 -6 -5 -6 -6 -5 -6 -6 -5 -6 -5 -6 -6 -5
-3 -3 -3 -3 -3 -4 -4 -4 -5 -5 -4 -4 -4 -3 -3 -3 -3 -3 -3 -3 -3 -3 -4 -4 -5 -5 -5 -6 -6 -7 -7 -7 -8 -7 -6 -6 -5 -5 -5 -6 -7 -6 -5 -6 -5 -5 -6
-3 -3 -4 -3 -3 -3 -4 -5 -5 -5 -4 -4 -4 -3 -3 -3 -3 -3 -4 -4 -4 -5 -6 -6 -7 -7 -7 -7 -8 -8 -7 -8 -9 -8 -7 -6 -6 -6 -6 -6 -7 -7 -7 -6 -5 -5 -5
-4 -3 -3 -3 -3 -3 -4 -4 -5 -5 -4 -4 -4 -3 -3 -3 -4 -4 -4 -5 -5 -6 -7 -7 -8 -8 -8 -8 -8 -9 -9 -9 -9 -9 -9 -8 -8 -8 -7 -7 -7 -7 -7 -6 -6 -5 -6
-4 -4 -3 -3 -3 -3 -4 -4 -5 -5 -4 -4 -4 -4 -4 -4 -4 -5 -5 -6 -6 -7 -7 -7 -8 -8 -9 -9 -9 -9 -9 -9 -10 -9 -9 -9 -9 -9 -8 -9 -8 -8 -7 -7 -6 -6 -5
-4 -4 -4 -3 -3 -3 -4 -5 -5 -5 -5 -4 -4 -4 -4 -5 -5 -6 -7 -7 -7 -8 -8 -8 -9 -10 -10 -10 -10 -10 -10 -10 -10 -10 -9 -9 -10 -10 -9 -8 -9 -8 -8 -7 -7 -6 -6
-4 -4 -4 -4 -4 -4 -4 -5 -6 -5 -5 -5 -4 -5 -5 -6 -6 -7 -8 -8 -8 -8 -8 -9 -10 -10 -10 -11 -11 -11 -11 -10 -10 -10 -10 -10 -10 -10 -10 -9 -10 -9 -8 -8 -7 -7 -7
-5 -4 -4 -4 -4 -5 -5 -6 -6 -6 -5 -5 -5 -5 -6 -6 -7 -8 -8 -8 -8 -9 -10 -10 -11 -11 -11 -11 -11 -11 -11 -11 -11 -11 -11 -11 -11 -10 -10 -10 -10 -10 -8 -8 -7 -7 -6
-5 -5 -5 -5 -5 -5 -5 -6 -6 -6 -6 -6 -6 -6 -6 -7 -8 -8 -8 -8 -9 -10 -11 -11 -11 -11 -12 -12 -12 -11 -11 -11 -11 -11 -11 -11 -11 -11 -10 -10 -10 -10 -9 -8 -7 -7 -6
-6 -5 -5 -6 -6 -6 -6 -6 -7 -7 -6 -6 -6 -7 -7 -8 -8 -8 -9 -9 -9 -10 -11 -11 -12 -12 -13 -13 -13 -12 -12 -12 -12 -12 -11 -12 -11 -11 -10 -10 -10 -10 -9 -8 -8 -8 -7
-6 -6 -6 -6 -6 -6 -6 -7 -7 -7 -7 -7 -7 -7 -8 -8 -9 -9 -9 -9 -10 -10 -11 -12 -12 -13 -13 -14 -14 -13 -13 -13 -13 -13 -12 -12 -12 -12 -11 -10 -10 -9 -9 -9 -9 -8 -7
-6 -6 -6 -7 -7 -7 -7 -7 -7 -8 -7 -7 -7 -8 -8 -9 -9 -9 -9 -10 -10 -11 -11 -12 -13 -13 -14 -14 -14 -13 -13 -13 -14 -13 -12 -13 -12 -12 -12 -11 -10 -10 -10 -10 -9 -8 -8
-7 -7 -7 -7 -7 -7 -7 -7 -7 -8 -8 -8 -8 -8 -8 -9 -9 -10 -10 -10 -10 -11 -11 -12 -13 -13 -13 -14 -14 -14 -13 -15 -14 -13 -12 -13 -13 -12 -12 -11 -10 -10 -10 -10 -9 -10 -9
-7 -7 -7 -7 -7 -8 -8 -8 -8 -8 -8 -8 -8 -8 -8 -9 -10 -10 -10 -11 -11 -10 -11 -12 -13 -14 -14 -14 -14 -14 -14 -15 -14 -13 -13 -12 -13 -12 -12 -12 -11 -11 -11 -10 -9 -10 -9
-7 -7 -8 -8 -8 -8 -8 -8 -8 -8 -8 -8 -8 -8 -9 -9 -10 -10 -10 -11 -11 -11 -12 -12 -13 -14 -14 -13 -14 -14 -14 -14 -14 -14 -13 -12 -13 -13 -12 -12 -11 -10 -11 -11 -10 -10 -9
-7 -7 -8 -8 -8 -8 -8 -8 -8 -9 -9 -9 -9 -9 -9 -9 -10 -10 -10 -11 -11 -11 -11 -12 -12 -14 -14 -14 -13 -14 -14 -14 -14 -13 -13 -13 -13 -13 -13 -12 -11 -12 -12 -11 -11 -10 -10
-7 -7 -8 -8 -8 -8 -8 -8 -9 -9 -9 -9 -9 -9 -9 -10 -11 -11 -11 -11 -11 -12 -12 -12 -12 -12 -13 -14 -14 -14 -14 -14 -14 -13 -13 -13 -13 -13 -13 -13 -13 -13 -12 -11 -11 -9 -10
-8 -8 -8 -8 -8 -8 -9 -9 -9 -9 -9 -9 -9 -9 -9 -10 -10 -11 -12 -11 -12 -12 -13 -13 -13 -13 -13 -13 -13 -13 -14 -14 -14 -14 -14 -13 -13 -13 -13 -13 -13 -13 -12 -11 -11 -10 -9
-8 -8 -8 -8 -8 -8 -9 -9 -9 -9 -9 -9 -10 -9 -10 -10 -10 -12 -13 -12 -11 -12 -13 -13 -13 -13 -13 -12 -13 -13 -14 -14 -14 -14 -14 -14 -13 -13 -12 -13 -13 -12 -12 -11 -11 -10 -10
-9 -9 -8 -8 -9 -9 -9 -9 -9 -9 -9 -9 -10 -10 -10 -10 -11 -12 -12 -12 -13 -13 -13 -13 -13 -13 -13 -13 -14 -14 -14 -14 -14 -14 -15 -14 -13 -12 -12 -13 -13 -13 -12 -11 -11 -11 -11
-9 -9 -9 -9 -9 -9 -9 -9 -10 -10 -10 -9 -10 -10 -10 -10 -11 -12 -12 -12 -13 -14 -13 -13 -13 -13 -13 -13 -13 -13 -13 -13 -13 -13 -14 -14 -14 -14 -14 -13 -13 -12 -12 -12 -12 -11 -11
-9 -9 -9 -9 -9 -9 -9 -9 -10 -10 -10 -10 -10 -10 -10 -11 -11 -11 -12 -13 -13 -14 -14 -13 -14 -14 -14 -14 -13 -13 -13 -14 -14 -14 -14 -14 -14 -14 -14 -14 -13 -12 -12 -12 -12 -12 -12
-10 -10 -10 -10 -10 -10 -10 -10 -10 -10 -10 -10 -10 -10 -11 -11 -11 -11 -12 -13 -13 -14 -14 -14 -14 -14 -14 -14 -14 -14 -14 -14 -14 -14 -14 -14 -15 -14 -14 -14 -14 -13 -13 -12 -12 -12 -12
-11 -10 -10 -10 -10 -10 -10 -10 -10 -10 -10 -10 -11 -11 -11 -11 -11 -12 -12 -13 -13 -15 -15 -14 -14 -14 -14 -14 -14 -14 -14 -14 -14 -14 -14 -15 -15 -15 -14 -14 -14 -14 -14 -13 -13 -13 -12
-12 -12 -12 -11 -11 -11 -11 -11 -11 -10 -10 -10 -11 -11 -11 -12 -13 -12 -12 -14 -14 -15 -15 -15 -15 -15 -15 -15 -14 -15 -15 -15 -15 -15 -15 -15 -15 -15 -15 -15 -15 -15 -14 -14 -14 -13 -13
-13 -13 -12 -12 -12 -12 -12 -12 -12 -11 -11 -11 -11 -12 -12 -12 -13 -13 -13 -14 -14 -15 -15 -15 -15 -14 -15 -15 -15 -15 -15 -15 -16 -16 -15 -15 -15 -15 -15 -15 -15 -15 -15 -14 -14 -14 -13
-13 -13 -13 -13 -13 -13 -13 -12 -12 -12 -12 -12 -11 -12 -13 -13 -13 -13 -14 -15 -15 -15 -15 -15 -15 -14 -14 -15 -15 -15 -15 -16 -16 -16 -16 -16 -16 -15 -15 -15 -14 -15 -14 -15 -14 -14 -14

GFSGBSN_500_temp_123.txt.gz
Temp
-3 -3 -3 -3 -3 -3 -3 -3 -3 -4 -4 -4 -5 -5 -4 -4 -4 -4 -3 -3 -3 -3 -3 -3 -3 -3 -3 -3 -4 -4 -4 -4 -4 -5 -5 -4 -5 -4 -5 -6 -6 -6 -6 -7 -6 -7 -7
-3 -3 -3 -3 -3 -3 -3 -3 -4 -5 -5 -5 -5 -4 -4 -4 -4 -3 -3 -3 -3 -3 -3 -3 -3 -3 -3 -4 -4 -4 -4 -4 -4 -5 -5 -5 -5 -5 -5 -6 -6 -6 -6 -7 -6 -7 -7
-4 -3 -3 -3 -3 -3 -3 -3 -4 -4 -5 -5 -5 -4 -4 -4 -3 -3 -3 -3 -3 -3 -3 -3 -3 -3 -4 -4 -4 -4 -4 -4 -5 -5 -5 -5 -6 -5 -5 -6 -6 -7 -6 -6 -7 -6 -7
-4 -4 -4 -3 -3 -3 -3 -3 -3 -4 -5 -5 -5 -4 -4 -4 -4 -3 -3 -3 -3 -3 -3 -3 -4 -4 -4 -4 -4 -4 -5 -5 -6 -6 -6 -6 -6 -6 -6 -7 -7 -7 -7 -7 -7 -6 -6
-4 -4 -4 -3 -3 -3 -3 -3 -4 -4 -5 -5 -5 -5 -4 -4 -4 -4 -4 -4 -4 -4 -4 -5 -4 -5 -5 -6 -6 -6 -6 -6 -7 -7 -7 -7 -7 -7 -7 -7 -7 -7 -7 -7 -7 -6 -5
-4 -4 -4 -4 -4 -3 -4 -4 -4 -4 -5 -6 -6 -5 -5 -4 -4 -4 -4 -4 -5 -5 -5 -5 -6 -6 -7 -7 -7 -7 -7 -7 -8 -8 -9 -8 -8 -8 -8 -8 -8 -7 -7 -7 -6 -6 -6
-5 -4 -4 -4 -4 -4 -4 -4 -4 -5 -5 -5 -6 -6 -5 -5 -5 -5 -5 -6 -6 -6 -6 -6 -7 -7 -7 -7 -7 -7 -8 -8 -8 -10 -10 -9 -9 -9 -8 -9 -8 -8 -7 -7 -6 -6 -6
-5 -5 -4 -4 -4 -4 -4 -4 -5 -5 -6 -6 -6 -6 -6 -6 -6 -6 -6 -6 -7 -7 -7 -7 -7 -7 -8 -8 -8 -8 -8 -9 -9 -10 -10 -10 -10 -10 -9 -9 -8 -9 -8 -8 -7 -7 -6
-5 -5 -5 -5 -5 -5 -5 -5 -5 -6 -6 -6 -7 -6 -6 -6 -6 -7 -7 -7 -7 -8 -7 -7 -8 -8 -8 -8 -9 -9 -9 -10 -10 -10 -11 -11 -11 -11 -10 -9 -9 -9 -9 -8 -8 -7 -6
-6 -5 -5 -5 -5 -5 -5 -6 -6 -6 -6 -7 -7 -7 -7 -7 -7 -7 -8 -7 -8 -8 -8 -8 -8 -8 -8 -8 -9 -9 -10 -10 -10 -10 -11 -11 -11 -11 -11 -10 -9 -9 -9 -8 -8 -7 -6
-6 -6 -6 -6 -6 -6 -6 -6 -6 -7 -7 -7 -7 -7 -7 -7 -7 -8 -8 -8 -8 -8 -8 -8 -9 -9 -8 -9 -10 -10 -10 -10 -10 -11 -11 -11 -11 -11 -11 -11 -11 -10 -9 -10 -9 -8 -7
-6 -6 -6 -6 -6 -6 -6 -6 -7 -7 -7 -7 -7 -8 -7 -7 -7 -8 -8 -8 -8 -8 -9 -9 -9 -9 -9 -10 -11 -11 -11 -11 -11 -11 -11 -11 -11 -11 -11 -11 -11 -10 -11 -10 -10 -9 -8
-6 -6 -6 -6 -6 -6 -6 -6 -7 -7 -7 -7 -8 -8 -7 -7 -8 -8 -8 -8 -9 -9 -9 -9 -10 -10 -11 -12 -12 -12 -12 -12 -11 -11 -12 -12 -11 -12 -12 -11 -11 -11 -11 -10 -10 -9 -8
-7 -7 -7 -7 -7 -6 -7 -7 -7 -7 -8 -8 -8 -8 -8 -8 -8 -8 -9 -9 -9 -9 -10 -9 -10 -10 -12 -12 -12 -12 -12 -12 -12 -12 -12 -12 -12 -12 -12 -12 -11 -11 -11 -10 -10 -9 -9
-7 -7 -7 -7 -7 -7 -7 -7 -7 -7 -8 -8 -8 -8 -8 -8 -8 -8 -9 -9 -10 -10 -10 -10 -10 -11 -12 -13 -13 -13 -13 -13 -13 -12 -13 -13 -12 -12 -13 -12 -12 -11 -11 -11 -10 -9 -9
-7 -7 -7 -7 -7 -7 -7 -7 -7 -7 -8 -8 -8 -8 -8 -8 -8 -8 -9 -9 -10 -10 -10 -10 -10 -11 -13 -13 -13 -13 -13 -14 -13 -13 -13 -13 -13 -13 -13 -12 -12 -12 -11 -11 -11 -10 -9
-8 -8 -8 -7 -7 -7 -7 -7 -7 -7 -8 -8 -8 -9 -8 -9 -9 -9 -9 -9 -10 -11 -11 -11 -11 -11 -12 -12 -13 -13 -14 -14 -14 -14 -14 -13 -13 -13 -13 -13 -12 -12 -11 -11 -11 -10 -10
-8 -8 -8 -8 -8 -8 -8 -8 -8 -8 -8 -8 -8 -9 -9 -9 -9 -9 -9 -10 -10 -11 -11 -11 -11 -12 -12 -12 -13 -13 -13 -14 -14 -14 -14 -14 -13 -14 -13 -13 -13 -12 -12 -11 -11 -11 -11
-8 -9 -9 -8 -8 -8 -8 -8 -8 -8 -8 -8 -9 -9 -9 -9 -9 -10 -10 -10 -10 -11 -12 -11 -12 -12 -12 -12 -12 -13 -13 -14 -14 -14 -14 -14 -14 -14 -13 -13 -13 -12 -12 -12 -12 -11 -11
-9 -9 -9 -9 -9 -9 -9 -9 -9 -9 -9 -9 -9 -9 -9 -9 -10 -10 -10 -10 -11 -12 -12 -12 -12 -12 -13 -12 -12 -12 -13 -13 -13 -14 -14 -14 -14 -14 -14 -13 -13 -13 -12 -12 -12 -12 -11
-9 -9 -9 -9 -9 -9 -9 -9 -9 -9 -9 -9 -9 -9 -10 -10 -10 -10 -10 -11 -11 -12 -12 -13 -13 -12 -12 -13 -13 -13 -13 -13 -13 -13 -13 -14 -14 -14 -14 -14 -13 -13 -13 -12 -12 -12 -11
-9 -9 -9 -9 -10 -10 -9 -9 -9 -9 -9 -9 -9 -10 -10 -10 -10 -10 -11 -11 -12 -12 -12 -13 -13 -13 -13 -13 -13 -13 -13 -13 -13 -13 -13 -13 -13 -14 -14 -14 -14 -14 -13 -13 -12 -12 -11
-11 -10 -10 -10 -10 -10 -10 -10 -10 -10 -10 -10 -10 -10 -10 -10 -11 -11 -11 -11 -12 -13 -13 -13 -13 -13 -14 -14 -14 -13 -13 -13 -13 -14 -14 -14 -14 -14 -14 -14 -14 -14 -13 -13 -13 -13 -12
-12 -11 -11 -11 -11 -11 -11 -11 -11 -10 -10 -10 -10 -10 -10 -10 -11 -11 -11 -12 -12 -13 -13 -14 -14 -14 -14 -14 -14 -14 -14 -14 -13 -13 -14 -14 -14 -14 -14 -14 -14 -13 -13 -13 -13 -13 -13
-13 -13 -13 -12 -12 -12 -12 -12 -12 -11 -11 -11 -11 -10 -10 -11 -11 -12 -12 -12 -12 -13 -15 -14 -15 -15 -14 -14 -14 -14 -14 -14 -14 -14 -14 -14 -14 -14 -14 -14 -13 -13 -14 -13 -13 -13 -13
-14 -14 -14 -14 -13 -13 -13 -13 -12 -13 -13 -12 -11 -11 -11 -11 -12 -12 -12 -13 -13 -14 -14 -15 -15 -15 -15 -15 -14 -14 -14 -14 -15 -14 -14 -14 -14 -14 -14 -14 -14 -14 -14 -13 -14 -13 -13
-14 -14 -14 -14 -14 -14 -14 -13 -13 -13 -13 -13 -13 -12 -12 -12 -13 -12 -12 -13 -14 -15 -14 -15 -15 -16 -16 -15 -15 -14 -14 -14 -14 -14 -14 -15 -15 -15 -15 -15 -14 -14 -14 -14 -14 -13 -14
-13 -14 -14 -14 -14 -14 -14 -13 -13 -13 -14 -13 -14 -14 -13 -13 -14 -13 -13 -13 -15 -15 -14 -15 -16 -16 -16 -15 -15 -15 -15 -14 -15 -15 -15 -15 -15 -15 -15 -15 -15 -15 -15 -15 -15 -15 -14
-13 -13 -13 -14 -14 -14 -14 -14 -14 -14 -13 -14 -14 -14 -14 -15 -14 -13 -14 -14 -14 -14 -14 -15 -15 -16 -16 -16 -15 -15 -15 -15 -15 -15 -15 -15 -16 -16 -16 -16 -15 -15 -15 -15 -15 -15 -14